Time,TemperatureF,DewpointF,PressureIn,WindDirection,WindDirectionDegrees,WindSpeedMPH,WindSpeedGustMPH,Humidity,HourlyPrecipIn,Conditions,Clouds,dailyrainin,SolarRadiationWatts/m^2,SoftwareType,DateUTC
2013-04-23 00:00:00,51.1,36.4,30.15,ESE,109,0.0,0.0,57,0.00,,---,0.00,0.00,VWS V14.01,2013-04-23 04:00:00,
2013-04-23 00:01:00,51.3,36.2,30.15,ESE,109,0.0,0.0,56,0.00,,---,0.00,0.00,VWS V14.01,2013-04-23 04:01:00,
2013-04-23 00:02:00,51.3,35.7,30.15,ESE,109,0.0,0.0,55,0.00,,---,0.00,0.00,VWS V14.01,2013-04-23 04:02:00,
2013-04-23 00:03:00,51.2,36.5,30.15,ESE,109,0.0,0.0,57,0.00,,---,0.00,0.00,VWS V14.01,2013-04-23 04:03:00,
2013-04-23 00:04:00,51.0,35.9,30.15,ESE,109,0.0,0.0,56,0.00,,---,0.00,0.00,VWS V14.01,2013-04-23 04:04:00,
2013-04-23 00:05:00,51.0,36.3,30.15,ESE,109,0.0,0.0,57,0.00,,---,0.00,0.00,VWS V14.01,2013-04-23 04:05:00,
2013-04-23 00:06:00,51.0,36.3,30.15,ESE,109,0.0,0.0,57,0.00,,---,0.00,0.00,VWS V14.01,2013-04-23 04:06:00,
2013-04-23 00:08:00,51.2,36.5,30.15,ESE,109,0.0,1.0,57,0.00,,---,0.00,0.00,VWS V14.01,2013-04-23 04:08:00,
2013-04-23 00:13:00,51.0,35.9,30.15,ESE,109,0.0,0.0,56,0.00,,---,0.00,0.00,VWS V14.01,2013-04-23 04:13:00,
2013-04-23 00:14:00,50.6,36.8,30.15,ESE,109,0.0,0.0,59,0.00,,---,0.00,0.00,VWS V14.01,2013-04-23 04:14:00,
2013-04-23 00:15:00,50.5,36.3,30.15,ESE,109,0.0,0.0,58,0.00,,---,0.00,0.00,VWS V14.01,2013-04-23 04:15:00,
2013-04-23 00:16:00,50.4,35.8,30.15,ESE,109,0.0,0.0,57,0.00,,---,0.00,0.00,VWS V14.01,2013-04-23 04:16:00,
2013-04-23 00:17:00,50.4,35.8,30.15,ESE,109,0.0,0.0,57,0.00,,---,0.00,0.00,VWS V14.01,2013-04-23 04:17:00,
2013-04-23 00:18:00,50.8,35.7,30.15,ESE,109,0.0,0.0,56,0.00,,---,0.00,0.00,VWS V14.01,2013-04-23 04:18:00,
2013-04-23 00:19:00,50.3,36.1,30.15,ESE,109,0.0,0.0,58,0.00,,---,0.00,0.00,VWS V14.01,2013-04-23 04:19:00,
2013-04-23 00:20:00,50.3,36.1,30.15,ESE,109,0.0,0.0,58,0.00,,---,0.00,0.00,VWS V14.01,2013-04-23 04:20:00,
2013-04-23 00:21:00,50.3,36.1,30.15,ESE,109,0.0,0.0,58,0.00,,---,0.00,0.00,VWS V14.01,2013-04-23 04:21:00,
2013-04-23 00:24:00,50.5,36.7,30.15,ESE,109,0.0,0.0,59,0.00,,---,0.00,0.00,VWS V14.01,2013-04-23 04:24:00,
2013-04-23 00:27:00,50.1,35.5,30.15,ESE,109,0.0,0.0,57,0.00,,---,0.00,0.00,VWS V14.01,2013-04-23 04:27:00,
2013-04-23 00:28:00,50.1,35.5,30.15,ESE,109,0.0,0.0,57,0.00,,---,0.00,0.00,VWS V14.01,2013-04-23 04:28:00,
2013-04-23 00:29:00,50.4,36.2,30.15,ESE,109,0.0,0.0,58,0.00,,---,0.00,0.00,VWS V14.01,2013-04-23 04:29:00,
2013-04-23 00:30:00,50.1,35.5,30.15,ESE,109,0.0,0.0,57,0.00,,---,0.00,0.00,VWS V14.01,2013-04-23 04:30:00,
2013-04-23 00:31:00,50.0,35.8,30.15,ESE,109,0.0,0.0,58,0.00,,---,0.00,0.00,VWS V14.01,2013-04-23 04:31:00,
2013-04-23 00:32:00,50.0,35.8,30.15,ESE,109,0.0,0.0,58,0.00,,---,0.00,0.00,VWS V14.01,2013-04-23 04:32:00,
2013-04-23 00:33:00,50.0,35.8,30.15,ESE,109,0.0,0.0,58,0.00,,---,0.00,0.00,VWS V14.01,2013-04-23 04:33:00,
2013-04-23 00:34:00,50.2,36.0,30.15,ESE,109,0.0,0.0,58,0.00,,---,0.00,0.00,VWS V14.01,2013-04-23 04:34:00,
2013-04-23 00:39:00,50.1,35.5,30.15,ESE,109,0.0,0.0,57,0.00,,---,0.00,0.00,VWS V14.01,2013-04-23 04:39:00,
2013-04-23 00:42:00,49.7,35.5,30.15,ESE,109,0.0,0.0,58,0.00,,---,0.00,0.00,VWS V14.01,2013-04-23 04:42:00,
2013-04-23 00:43:00,49.7,36.0,30.15,ESE,109,0.0,0.0,59,0.00,,---,0.00,0.00,VWS V14.01,2013-04-23 04:43:00,
2013-04-23 00:44:00,49.9,35.7,30.15,ESE,109,0.0,0.0,58,0.00,,---,0.00,0.00,VWS V14.01,2013-04-23 04:44:00,
2013-04-23 00:45:00,49.7,35.5,30.15,ESE,109,0.0,0.0,58,0.00,,---,0.00,0.00,VWS V14.01,2013-04-23 04:45:00,
2013-04-23 00:46:00,49.6,35.5,30.15,ESE,109,0.0,0.0,58,0.00,,---,0.00,0.00,VWS V14.01,2013-04-23 04:46:00,
2013-04-23 00:47:00,49.6,35.0,30.15,ESE,109,0.0,0.0,57,0.00,,---,0.00,0.00,VWS V14.01,2013-04-23 04:47:00,
2013-04-23 00:48:00,49.6,35.0,30.15,ESE,109,0.0,0.0,57,0.00,,---,0.00,0.00,VWS V14.01,2013-04-23 04:48:00,
2013-04-23 00:49:00,49.7,35.1,30.15,ESE,109,0.0,0.0,57,0.00,,---,0.00,0.00,VWS V14.01,2013-04-23 04:49:00,
2013-04-23 00:54:00,49.7,35.5,30.15,ESE,109,0.0,0.0,58,0.00,,---,0.00,0.00,VWS V14.01,2013-04-23 04:54:00,
2013-04-23 00:56:00,49.3,35.6,30.15,ESE,109,0.0,0.0,59,0.00,,---,0.00,0.00,VWS V14.01,2013-04-23 04:56:00,
2013-04-23 00:57:00,49.3,35.6,30.15,ESE,109,0.0,0.0,59,0.00,,---,0.00,0.00,VWS V14.01,2013-04-23 04:57:00,
2013-04-23 00:58:00,49.2,35.5,30.16,ESE,109,0.0,0.0,59,0.00,,---,0.00,0.00,VWS V14.01,2013-04-23 04:58:00,
2013-04-23 00:59:00,49.5,35.3,30.15,ESE,109,0.0,0.0,58,0.00,,---,0.00,0.00,VWS V14.01,2013-04-23 04:59:00,
2013-04-23 01:00:00,49.2,35.1,30.16,ESE,109,0.0,0.0,58,0.00,,---,0.00,0.00,VWS V14.01,2013-04-23 05:00:00,
2013-04-23 01:01:00,49.1,35.0,30.15,ESE,109,0.0,0.0,58,0.00,,---,0.00,0.00,VWS V14.01,2013-04-23 05:01:00,
2013-04-23 01:02:00,49.1,35.8,30.15,ESE,109,0.0,0.0,60,0.00,,---,0.00,0.00,VWS V14.01,2013-04-23 05:02:00,
2013-04-23 01:05:00,49.4,35.3,30.15,ESE,109,0.0,0.0,58,0.00,,---,0.00,0.00,VWS V14.01,2013-04-23 05:05:00,
2013-04-23 01:10:00,49.2,35.1,30.15,ESE,109,0.0,0.0,58,0.00,,---,0.00,0.00,VWS V14.01,2013-04-23 05:10:00,
2013-04-23 01:11:00,48.7,35.9,30.15,ESE,109,0.0,0.0,61,0.00,,---,0.00,0.00,VWS V14.01,2013-04-23 05:11:00,
2013-04-23 01:12:00,48.7,35.0,30.15,ESE,109,0.0,0.0,59,0.00,,---,0.00,0.00,VWS V14.01,2013-04-23 05:12:00,
2013-04-23 01:13:00,48.6,35.4,30.15,ESE,109,0.0,1.0,60,0.00,,---,0.00,0.00,VWS V14.01,2013-04-23 05:13:00,
2013-04-23 01:14:00,48.6,34.9,30.16,ESE,109,0.0,1.0,59,0.00,,---,0.00,0.00,VWS V14.01,2013-04-23 05:14:00,
2013-04-23 01:15:00,49.0,35.3,30.16,ESE,109,0.0,1.0,59,0.00,,---,0.00,0.00,VWS V14.01,2013-04-23 05:15:00,
2013-04-23 01:16:00,48.5,34.8,30.15,ESE,109,0.0,1.0,59,0.00,,---,0.00,0.00,VWS V14.01,2013-04-23 05:16:00,
2013-04-23 01:17:00,48.4,34.8,30.15,ESE,109,0.0,1.0,59,0.00,,---,0.00,0.00,VWS V14.01,2013-04-23 05:17:00,
2013-04-23 01:20:00,48.8,35.1,30.15,ESE,109,0.0,0.0,59,0.00,,---,0.00,0.00,VWS V14.01,2013-04-23 05:20:00,
2013-04-23 01:24:00,48.3,35.1,30.16,ESE,109,0.0,1.0,60,0.00,,---,0.00,0.00,VWS V14.01,2013-04-23 05:24:00,
2013-04-23 01:25:00,48.5,34.8,30.15,ESE,109,0.0,1.0,59,0.00,,---,0.00,0.00,VWS V14.01,2013-04-23 05:25:00,
2013-04-23 01:26:00,48.3,34.7,30.15,ESE,109,0.0,1.0,59,0.00,,---,0.00,0.00,VWS V14.01,2013-04-23 05:26:00,
2013-04-23 01:27:00,48.3,35.1,30.15,ESE,109,0.0,1.0,60,0.00,,---,0.00,0.00,VWS V14.01,2013-04-23 05:27:00,
2013-04-23 01:28:00,48.2,35.0,30.15,ESE,109,0.0,1.0,60,0.00,,---,0.00,0.00,VWS V14.01,2013-04-23 05:28:00,
2013-04-23 01:29:00,48.2,34.6,30.15,ESE,109,0.0,1.0,59,0.00,,---,0.00,0.00,VWS V14.01,2013-04-23 05:29:00,
2013-04-23 01:30:00,48.3,34.7,30.15,ESE,109,0.0,1.0,59,0.00,,---,0.00,0.00,VWS V14.01,2013-04-23 05:30:00,
2013-04-23 01:31:00,48.2,34.6,30.15,ESE,109,0.0,0.0,59,0.00,,---,0.00,0.00,VWS V14.01,2013-04-23 05:31:00,
2013-04-23 01:35:00,48.3,34.7,30.15,ESE,109,0.0,1.0,59,0.00,,---,0.00,0.00,VWS V14.01,2013-04-23 05:35:00,
2013-04-23 01:39:00,48.2,35.4,30.15,ESE,109,0.0,1.0,61,0.00,,---,0.00,0.00,VWS V14.01,2013-04-23 05:39:00,
2013-04-23 01:40:00,48.2,34.6,30.15,ESE,109,0.0,0.0,59,0.00,,---,0.00,0.00,VWS V14.01,2013-04-23 05:40:00,
2013-04-23 01:41:00,48.1,34.5,30.15,ESE,109,0.0,0.0,59,0.00,,---,0.00,0.00,VWS V14.01,2013-04-23 05:41:00,
2013-04-23 01:42:00,48.1,34.9,30.15,ESE,109,0.0,0.0,60,0.00,,---,0.00,0.00,VWS V14.01,2013-04-23 05:42:00,
2013-04-23 01:43:00,48.1,34.9,30.15,ESE,109,0.0,0.0,60,0.00,,---,0.00,0.00,VWS V14.01,2013-04-23 05:43:00,
2013-04-23 01:44:00,48.0,34.8,30.15,ESE,109,0.0,0.0,60,0.00,,---,0.00,0.00,VWS V14.01,2013-04-23 05:44:00,
2013-04-23 01:45:00,48.2,35.4,30.15,ESE,109,0.0,1.0,61,0.00,,---,0.00,0.00,VWS V14.01,2013-04-23 05:45:00,
2013-04-23 01:51:00,48.1,34.5,30.15,ESE,109,0.0,0.0,59,0.00,,---,0.00,0.00,VWS V14.01,2013-04-23 05:51:00,
2013-04-23 01:53:00,47.6,35.2,30.15,ESE,109,0.0,2.0,62,0.00,,---,0.00,0.00,VWS V14.01,2013-04-23 05:53:00,
2013-04-23 01:54:00,47.5,35.1,30.15,ESE,109,1.0,2.0,62,0.00,,---,0.00,0.00,VWS V14.01,2013-04-23 05:54:00,
2013-04-23 01:55:00,47.4,35.5,30.15,SSW,199,1.0,2.0,63,0.00,,---,0.00,0.00,VWS V14.01,2013-04-23 05:55:00,
2013-04-23 01:56:00,47.9,35.5,30.15,ESE,109,0.0,0.0,62,0.00,,---,0.00,0.00,VWS V14.01,2013-04-23 05:56:00,
2013-04-23 01:57:00,47.3,34.5,30.15,SSW,199,0.0,2.0,61,0.00,,---,0.00,0.00,VWS V14.01,2013-04-23 05:57:00,
2013-04-23 01:58:00,47.4,34.6,30.15,SSW,199,0.0,2.0,61,0.00,,---,0.00,0.00,VWS V14.01,2013-04-23 05:58:00,
2013-04-23 01:59:00,47.3,35.4,30.15,SSW,199,0.0,2.0,63,0.00,,---,0.00,0.00,VWS V14.01,2013-04-23 05:59:00,
2013-04-23 02:00:00,47.3,35.0,30.15,SSW,199,1.0,1.0,62,0.00,,---,0.00,0.00,VWS V14.01,2013-04-23 06:00:00,
2013-04-23 02:01:00,47.7,35.3,30.15,ESE,109,0.0,1.0,62,0.00,,---,0.00,0.00,VWS V14.01,2013-04-23 06:01:00,
2013-04-23 02:06:00,47.3,34.5,30.15,SSW,199,0.0,2.0,61,0.00,,---,0.00,0.00,VWS V14.01,2013-04-23 06:06:00,
2013-04-23 02:08:00,47.0,33.8,30.15,SSW,199,0.0,1.0,60,0.00,,---,0.00,0.00,VWS V14.01,2013-04-23 06:08:00,
2013-04-23 02:09:00,47.0,33.4,30.15,SSW,199,0.0,1.0,59,0.00,,---,0.00,0.00,VWS V14.01,2013-04-23 06:09:00,
2013-04-23 02:10:00,47.0,33.4,30.15,SSW,199,0.0,0.0,59,0.00,,---,0.00,0.00,VWS V14.01,2013-04-23 06:10:00,
2013-04-23 02:11:00,47.2,35.7,30.15,SSW,199,0.0,1.0,64,0.00,,---,0.00,0.00,VWS V14.01,2013-04-23 06:11:00,
2013-04-23 02:12:00,47.0,33.4,30.15,SSW,198,0.0,0.0,59,0.00,,---,0.00,0.00,VWS V14.01,2013-04-23 06:12:00,
2013-04-23 02:13:00,47.0,33.0,30.15,SSW,198,0.0,0.0,58,0.00,,---,0.00,0.00,VWS V14.01,2013-04-23 06:13:00,
2013-04-23 02:14:00,47.0,33.4,30.15,SSW,198,0.0,0.0,59,0.00,,---,0.00,0.00,VWS V14.01,2013-04-23 06:14:00,
2013-04-23 02:16:00,47.0,34.3,30.15,SSW,199,0.0,1.0,61,0.00,,---,0.00,0.00,VWS V14.01,2013-04-23 06:16:00,
2013-04-23 02:21:00,47.0,33.4,30.15,SSW,198,0.0,0.0,59,0.00,,---,0.00,0.00,VWS V14.01,2013-04-23 06:21:00,
2013-04-23 02:22:00,47.0,34.3,30.15,SSW,198,0.0,0.0,61,0.00,,---,0.00,0.00,VWS V14.01,2013-04-23 06:22:00,
2013-04-23 02:23:00,46.9,33.8,30.15,SSW,198,0.0,0.0,60,0.00,,---,0.00,0.00,VWS V14.01,2013-04-23 06:23:00,
2013-04-23 02:24:00,46.9,33.8,30.15,SSW,198,0.0,0.0,60,0.00,,---,0.00,0.00,VWS V14.01,2013-04-23 06:24:00,
2013-04-23 02:25:00,46.9,34.2,30.15,SSW,198,0.0,0.0,61,0.00,,---,0.00,0.00,VWS V14.01,2013-04-23 06:25:00,
2013-04-23 02:26:00,47.0,33.0,30.15,SSW,198,0.0,0.0,58,0.00,,---,0.00,0.00,VWS V14.01,2013-04-23 06:26:00,
2013-04-23 02:27:00,46.8,33.2,30.15,SSW,198,0.0,0.0,59,0.00,,---,0.00,0.00,VWS V14.01,2013-04-23 06:27:00,
2013-04-23 02:28:00,46.8,34.1,30.15,SSW,198,0.0,0.0,61,0.00,,---,0.00,0.00,VWS V14.01,2013-04-23 06:28:00,
2013-04-23 02:29:00,46.7,33.6,30.15,SSW,198,0.0,0.0,60,0.00,,---,0.00,0.00,VWS V14.01,2013-04-23 06:29:00,
2013-04-23 02:32:00,47.0,34.3,30.15,SSW,198,0.0,0.0,61,0.00,,---,0.00,0.00,VWS V14.01,2013-04-23 06:32:00,
2013-04-23 02:36:00,46.5,33.0,30.15,SSW,198,0.0,0.0,59,0.00,,---,0.00,0.00,VWS V14.01,2013-04-23 06:36:00,
2013-04-23 02:37:00,46.8,33.2,30.15,SSW,198,0.0,0.0,59,0.00,,---,0.00,0.00,VWS V14.01,2013-04-23 06:37:00,
2013-04-23 02:38:00,46.4,33.7,30.15,SSW,198,0.0,0.0,61,0.00,,---,0.00,0.00,VWS V14.01,2013-04-23 06:38:00,
2013-04-23 02:39:00,46.4,33.3,30.14,SSW,198,0.0,0.0,60,0.00,,---,0.00,0.00,VWS V14.01,2013-04-23 06:39:00,
2013-04-23 02:40:00,46.4,33.3,30.14,SSW,198,0.0,0.0,60,0.00,,---,0.00,0.00,VWS V14.01,2013-04-23 06:40:00,
2013-04-23 02:41:00,46.3,32.8,30.15,SSW,198,0.0,0.0,59,0.00,,---,0.00,0.00,VWS V14.01,2013-04-23 06:41:00,
2013-04-23 02:42:00,46.6,33.0,30.15,SSW,198,0.0,0.0,59,0.00,,---,0.00,0.00,VWS V14.01,2013-04-23 06:42:00,
2013-04-23 02:43:00,46.3,33.2,30.14,SSW,198,0.0,1.0,60,0.00,,---,0.00,0.00,VWS V14.01,2013-04-23 06:43:00,
2013-04-23 02:45:00,46.2,31.8,30.15,SSW,198,0.0,1.0,57,0.00,,---,0.00,0.00,VWS V14.01,2013-04-23 06:45:00,
2013-04-23 02:47:00,46.4,32.9,30.15,SSW,198,0.0,0.0,59,0.00,,---,0.00,0.00,VWS V14.01,2013-04-23 06:47:00,
2013-04-23 02:50:00,46.2,32.2,30.15,SSW,198,0.0,0.0,58,0.00,,---,0.00,0.00,VWS V14.01,2013-04-23 06:50:00,
2013-04-23 02:51:00,46.2,32.2,30.15,SSW,198,0.0,0.0,58,0.00,,---,0.00,0.00,VWS V14.01,2013-04-23 06:51:00,
2013-04-23 02:52:00,46.3,33.2,30.14,SSW,198,0.0,1.0,60,0.00,,---,0.00,0.00,VWS V14.01,2013-04-23 06:52:00,
2013-04-23 02:53:00,46.2,32.7,30.14,SSW,198,0.0,0.0,59,0.00,,---,0.00,0.00,VWS V14.01,2013-04-23 06:53:00,
2013-04-23 02:54:00,46.2,31.8,30.15,SSW,198,0.0,0.0,57,0.00,,---,0.00,0.00,VWS V14.01,2013-04-23 06:54:00,
2013-04-23 02:55:00,46.2,32.7,30.15,SSW,198,0.0,0.0,59,0.00,,---,0.00,0.00,VWS V14.01,2013-04-23 06:55:00,
2013-04-23 02:56:00,46.2,33.1,30.15,SSW,198,0.0,0.0,60,0.00,,---,0.00,0.00,VWS V14.01,2013-04-23 06:56:00,
2013-04-23 02:57:00,46.2,32.7,30.15,SSW,198,0.0,1.0,59,0.00,,---,0.00,0.00,VWS V14.01,2013-04-23 06:57:00,
2013-04-23 03:02:00,46.2,32.7,30.14,SSW,198,0.0,0.0,59,0.00,,---,0.00,0.00,VWS V14.01,2013-04-23 07:02:00,
2013-04-23 03:05:00,46.0,32.1,30.15,SSW,198,0.0,0.0,58,0.00,,---,0.00,0.00,VWS V14.01,2013-04-23 07:05:00,
2013-04-23 03:06:00,46.0,32.1,30.14,SSW,198,0.0,0.0,58,0.00,,---,0.00,0.00,VWS V14.01,2013-04-23 07:06:00,
2013-04-23 03:07:00,46.2,33.1,30.15,SSW,198,0.0,0.0,60,0.00,,---,0.00,0.00,VWS V14.01,2013-04-23 07:07:00,
2013-04-23 03:08:00,45.9,33.6,30.14,SSW,198,0.0,0.0,62,0.00,,---,0.00,0.00,VWS V14.01,2013-04-23 07:08:00,
2013-04-23 03:09:00,45.8,33.5,30.14,SSW,198,0.0,0.0,62,0.00,,---,0.00,0.00,VWS V14.01,2013-04-23 07:09:00,
2013-04-23 03:10:00,45.8,33.1,30.14,SSW,198,0.0,0.0,61,0.00,,---,0.00,0.00,VWS V14.01,2013-04-23 07:10:00,
2013-04-23 03:11:00,45.8,32.7,30.14,SSW,198,0.0,1.0,60,0.00,,---,0.00,0.00,VWS V14.01,2013-04-23 07:11:00,
2013-04-23 03:12:00,46.0,32.5,30.15,SSW,198,0.0,0.0,59,0.00,,---,0.00,0.00,VWS V14.01,2013-04-23 07:12:00,
2013-04-23 03:13:00,45.6,33.3,30.14,SSW,198,0.0,1.0,62,0.00,,---,0.00,0.00,VWS V14.01,2013-04-23 07:13:00,
2013-04-23 03:18:00,45.9,33.6,30.14,SSW,198,0.0,0.0,62,0.00,,---,0.00,0.00,VWS V14.01,2013-04-23 07:18:00,
2013-04-23 03:19:00,45.4,33.2,30.14,SSW,198,0.0,1.0,62,0.00,,---,0.00,0.00,VWS V14.01,2013-04-23 07:19:00,
2013-04-23 03:20:00,45.3,33.1,30.14,SSW,198,0.0,0.0,62,0.00,,---,0.00,0.00,VWS V14.01,2013-04-23 07:20:00,
2013-04-23 03:21:00,45.2,32.6,30.14,SSW,198,0.0,0.0,61,0.00,,---,0.00,0.00,VWS V14.01,2013-04-23 07:21:00,
2013-04-23 03:22:00,45.2,32.6,30.14,SSW,198,0.0,0.0,61,0.00,,---,0.00,0.00,VWS V14.01,2013-04-23 07:22:00,
2013-04-23 03:23:00,45.6,33.3,30.14,SSW,198,0.0,1.0,62,0.00,,---,0.00,0.00,VWS V14.01,2013-04-23 07:23:00,
2013-04-23 03:24:00,45.2,33.0,30.15,SSW,198,0.0,0.0,62,0.00,,---,0.00,0.00,VWS V14.01,2013-04-23 07:24:00,
2013-04-23 03:25:00,45.2,32.6,30.15,SSW,198,0.0,0.0,61,0.00,,---,0.00,0.00,VWS V14.01,2013-04-23 07:25:00,
2013-04-23 03:26:00,45.1,32.9,30.14,SSW,198,0.0,0.0,62,0.00,,---,0.00,0.00,VWS V14.01,2013-04-23 07:26:00,
2013-04-23 03:28:00,45.4,32.8,30.14,SSW,198,0.0,1.0,61,0.00,,---,0.00,0.00,VWS V14.01,2013-04-23 07:28:00,
2013-04-23 03:31:00,45.0,32.8,30.14,SSW,194,0.0,0.0,62,0.00,,---,0.00,0.00,VWS V14.01,2013-04-23 07:31:00,
2013-04-23 03:32:00,45.0,33.6,30.14,SSE,150,0.0,1.0,64,0.00,,---,0.00,0.00,VWS V14.01,2013-04-23 07:32:00,
2013-04-23 03:33:00,45.2,33.4,30.15,SSW,198,0.0,0.0,63,0.00,,---,0.00,0.00,VWS V14.01,2013-04-23 07:33:00,
2013-04-23 03:34:00,44.9,33.1,30.15,SSE,150,0.0,1.0,63,0.00,,---,0.00,0.00,VWS V14.01,2013-04-23 07:34:00,
2013-04-23 03:35:00,44.9,33.5,30.15,SSE,150,0.0,1.0,64,0.00,,---,0.00,0.00,VWS V14.01,2013-04-23 07:35:00,
2013-04-23 03:36:00,44.8,32.6,30.15,SSE,150,0.0,1.0,62,0.00,,---,0.00,0.00,VWS V14.01,2013-04-23 07:36:00,
2013-04-23 03:37:00,44.8,32.6,30.15,SSE,150,0.0,1.0,62,0.00,,---,0.00,0.00,VWS V14.01,2013-04-23 07:37:00,
2013-04-23 03:38:00,45.1,33.3,30.15,SSW,198,0.0,0.0,63,0.00,,---,0.00,0.00,VWS V14.01,2013-04-23 07:38:00,
2013-04-23 03:39:00,44.8,33.0,30.15,SSE,150,0.0,1.0,63,0.00,,---,0.00,0.00,VWS V14.01,2013-04-23 07:39:00,
2013-04-23 03:43:00,44.9,33.1,30.15,SSE,150,0.0,1.0,63,0.00,,---,0.00,0.00,VWS V14.01,2013-04-23 07:43:00,
2013-04-23 03:44:00,44.8,33.0,30.15,SSE,150,0.0,0.0,63,0.00,,---,0.00,0.00,VWS V14.01,2013-04-23 07:44:00,
2013-04-23 03:45:00,44.8,33.0,30.15,SSE,150,0.0,0.0,63,0.00,,---,0.00,0.00,VWS V14.01,2013-04-23 07:45:00,
2013-04-23 03:46:00,44.8,33.0,30.15,SSE,150,0.0,0.0,63,0.00,,---,0.00,0.00,VWS V14.01,2013-04-23 07:46:00,
2013-04-23 03:47:00,44.8,33.4,30.15,SSE,150,0.0,0.0,64,0.00,,---,0.00,0.00,VWS V14.01,2013-04-23 07:47:00,
2013-04-23 03:48:00,44.8,33.0,30.15,SSE,150,1.0,1.0,63,0.00,,---,0.00,0.00,VWS V14.01,2013-04-23 07:48:00,
2013-04-23 03:49:00,44.7,32.9,30.15,SSE,150,0.0,0.0,63,0.00,,---,0.00,0.00,VWS V14.01,2013-04-23 07:49:00,
2013-04-23 03:50:00,44.7,32.5,30.15,SSE,150,0.0,1.0,62,0.00,,---,0.00,0.00,VWS V14.01,2013-04-23 07:50:00,
2013-04-23 03:52:00,44.7,32.9,30.15,SSE,150,0.0,1.0,63,0.00,,---,0.00,0.00,VWS V14.01,2013-04-23 07:52:00,
2013-04-23 03:54:00,44.8,33.0,30.15,SSE,150,0.0,0.0,63,0.00,,---,0.00,0.00,VWS V14.01,2013-04-23 07:54:00,
2013-04-23 03:59:00,44.7,32.9,30.15,SSE,150,0.0,0.0,63,0.00,,---,0.00,0.00,VWS V14.01,2013-04-23 07:59:00,
2013-04-23 04:00:00,44.7,31.7,30.15,SSE,150,0.0,0.0,60,0.00,,---,0.00,0.00,VWS V14.01,2013-04-23 08:00:00,
2013-04-23 04:01:00,44.7,31.7,30.14,SSE,150,0.0,0.0,60,0.00,,---,0.00,0.00,VWS V14.01,2013-04-23 08:01:00,
2013-04-23 04:02:00,44.7,32.5,30.15,SSE,150,0.0,0.0,62,0.00,,---,0.00,0.00,VWS V14.01,2013-04-23 08:02:00,
2013-04-23 04:03:00,44.7,32.1,30.15,SSE,150,0.0,0.0,61,0.00,,---,0.00,0.00,VWS V14.01,2013-04-23 08:03:00,
2013-04-23 04:04:00,44.7,32.9,30.14,SSE,150,0.0,1.0,63,0.00,,---,0.00,0.00,VWS V14.01,2013-04-23 08:04:00,
2013-04-23 04:05:00,44.8,32.6,30.14,SSE,150,0.0,0.0,62,0.00,,---,0.00,0.00,VWS V14.01,2013-04-23 08:05:00,
2013-04-23 04:07:00,44.8,33.0,30.14,SSE,150,0.0,0.0,63,0.00,,---,0.00,0.00,VWS V14.01,2013-04-23 08:07:00,
2013-04-23 04:09:00,44.7,32.1,30.15,SSE,150,0.0,0.0,61,0.00,,---,0.00,0.00,VWS V14.01,2013-04-23 08:09:00,
2013-04-23 04:13:00,44.8,32.6,30.15,SSE,150,0.0,0.0,62,0.00,,---,0.00,0.00,VWS V14.01,2013-04-23 08:13:00,
2013-04-23 04:14:00,44.8,32.6,30.14,SSE,150,0.0,0.0,62,0.00,,---,0.00,0.00,VWS V14.01,2013-04-23 08:14:00,
2013-04-23 04:15:00,44.8,31.8,30.15,SSE,150,0.0,1.0,60,0.00,,---,0.00,0.00,VWS V14.01,2013-04-23 08:15:00,
2013-04-23 04:16:00,44.9,31.9,30.15,SSE,150,0.0,1.0,60,0.00,,---,0.00,0.00,VWS V14.01,2013-04-23 08:16:00,
2013-04-23 04:17:00,44.8,32.2,30.15,SSE,150,0.0,1.0,61,0.00,,---,0.00,0.00,VWS V14.01,2013-04-23 08:17:00,
2013-04-23 04:18:00,44.8,32.2,30.15,SSE,150,0.0,1.0,61,0.00,,---,0.00,0.00,VWS V14.01,2013-04-23 08:18:00,
2013-04-23 04:19:00,44.8,33.4,30.15,SSE,150,0.0,0.0,64,0.00,,---,0.00,0.00,VWS V14.01,2013-04-23 08:19:00,
2013-04-23 04:20:00,44.9,31.9,30.15,SSE,150,0.0,0.0,60,0.00,,---,0.00,0.00,VWS V14.01,2013-04-23 08:20:00,
2013-04-23 04:21:00,44.9,31.5,30.15,SSE,150,0.0,0.0,59,0.00,,---,0.00,0.00,VWS V14.01,2013-04-23 08:21:00,
2013-04-23 04:24:00,44.8,31.8,30.15,SSE,150,0.0,1.0,60,0.00,,---,0.00,0.00,VWS V14.01,2013-04-23 08:24:00,
2013-04-23 04:27:00,45.0,32.8,30.14,SSE,150,0.0,1.0,62,0.00,,---,0.00,0.00,VWS V14.01,2013-04-23 08:27:00,
2013-04-23 04:28:00,45.0,32.4,30.14,SSE,150,0.0,1.0,61,0.00,,---,0.00,0.00,VWS V14.01,2013-04-23 08:28:00,
2013-04-23 04:29:00,44.8,31.8,30.15,SSE,150,0.0,0.0,60,0.00,,---,0.00,0.00,VWS V14.01,2013-04-23 08:29:00,
2013-04-23 04:30:00,45.0,33.2,30.14,SSE,150,0.0,0.0,63,0.00,,---,0.00,0.00,VWS V14.01,2013-04-23 08:30:00,
2013-04-23 04:31:00,44.9,33.1,30.14,SSE,150,0.0,0.0,63,0.00,,---,0.00,0.00,VWS V14.01,2013-04-23 08:31:00,
2013-04-23 04:32:00,44.9,32.3,30.14,SSE,150,0.0,0.0,61,0.00,,---,0.00,0.00,VWS V14.01,2013-04-23 08:32:00,
2013-04-23 04:33:00,44.9,33.1,30.14,SSE,150,0.0,0.0,63,0.00,,---,0.00,0.00,VWS V14.01,2013-04-23 08:33:00,
2013-04-23 04:34:00,45.0,32.0,30.14,SSE,150,0.0,1.0,60,0.00,,---,0.00,0.00,VWS V14.01,2013-04-23 08:34:00,
2013-04-23 04:36:00,44.8,33.8,30.14,SSE,150,0.0,0.0,65,0.00,,---,0.00,0.00,VWS V14.01,2013-04-23 08:36:00,
2013-04-23 04:37:00,44.7,33.7,30.14,SSE,150,0.0,0.0,65,0.00,,---,0.00,0.00,VWS V14.01,2013-04-23 08:37:00,
2013-04-23 04:38:00,44.6,33.6,30.14,SSE,150,0.0,0.0,65,0.00,,---,0.00,0.00,VWS V14.01,2013-04-23 08:38:00,
2013-04-23 04:39:00,44.6,34.3,30.14,SSE,150,0.0,0.0,67,0.00,,---,0.00,0.00,VWS V14.01,2013-04-23 08:39:00,
2013-04-23 04:40:00,45.0,33.2,30.14,SSE,150,0.0,0.0,63,0.00,,---,0.00,0.00,VWS V14.01,2013-04-23 08:40:00,
2013-04-23 04:43:00,44.3,33.3,30.13,SSE,150,0.0,0.0,65,0.00,,---,0.00,0.00,VWS V14.01,2013-04-23 08:43:00,
2013-04-23 04:44:00,44.3,33.3,30.13,SSE,150,0.0,0.0,65,0.00,,---,0.00,0.00,VWS V14.01,2013-04-23 08:44:00,
2013-04-23 04:45:00,44.8,33.8,30.14,SSE,150,0.0,0.0,65,0.00,,---,0.00,0.00,VWS V14.01,2013-04-23 08:45:00,
2013-04-23 04:46:00,44.2,34.0,30.13,SSE,150,0.0,0.0,67,0.00,,---,0.00,0.00,VWS V14.01,2013-04-23 08:46:00,
2013-04-23 04:47:00,44.1,33.9,30.14,SSE,150,0.0,0.0,67,0.00,,---,0.00,0.00,VWS V14.01,2013-04-23 08:47:00,
2013-04-23 04:48:00,44.1,33.5,30.13,SSE,150,0.0,0.0,66,0.00,,---,0.00,0.00,VWS V14.01,2013-04-23 08:48:00,
2013-04-23 04:49:00,44.0,34.1,30.13,SSE,150,0.0,0.0,68,0.00,,---,0.00,0.00,VWS V14.01,2013-04-23 08:49:00,
2013-04-23 04:50:00,44.5,33.5,30.14,SSE,150,0.0,0.0,65,0.00,,---,0.00,0.00,VWS V14.01,2013-04-23 08:50:00,
2013-04-23 04:55:00,44.2,33.6,30.13,SSE,150,0.0,0.0,66,0.00,,---,0.00,0.00,VWS V14.01,2013-04-23 08:55:00,
2013-04-23 04:57:00,43.8,33.2,30.13,SSE,150,0.0,1.0,66,0.00,,---,0.00,0.00,VWS V14.01,2013-04-23 08:57:00,
2013-04-23 04:58:00,43.9,33.3,30.13,SSE,150,0.0,1.0,66,0.00,,---,0.00,0.00,VWS V14.01,2013-04-23 08:58:00,
2013-04-23 04:59:00,43.9,33.3,30.13,SSE,150,0.0,1.0,66,0.00,,---,0.00,0.00,VWS V14.01,2013-04-23 08:59:00,
2013-04-23 05:00:00,43.9,33.3,30.13,SSE,150,0.0,0.0,66,0.00,,---,0.00,0.00,VWS V14.01,2013-04-23 09:00:00,
2013-04-23 05:01:00,43.9,34.0,30.13,SSE,150,0.0,1.0,68,0.00,,---,0.00,0.00,VWS V14.01,2013-04-23 09:01:00,
2013-04-23 05:02:00,43.9,34.4,30.13,SSE,150,0.0,1.0,69,0.00,,---,0.00,0.00,VWS V14.01,2013-04-23 09:02:00,
2013-04-23 05:03:00,43.9,34.4,30.13,SSE,150,0.0,1.0,69,0.00,,---,0.00,0.00,VWS V14.01,2013-04-23 09:03:00,
2013-04-23 05:04:00,43.8,34.3,30.13,SSE,150,0.0,1.0,69,0.00,,---,0.00,0.00,VWS V14.01,2013-04-23 09:04:00,
2013-04-23 05:06:00,43.8,32.8,30.13,SSE,150,0.0,1.0,65,0.00,,---,0.00,0.00,VWS V14.01,2013-04-23 09:06:00,
2013-04-23 05:11:00,43.9,34.0,30.13,SSE,150,0.0,1.0,68,0.00,,---,0.00,0.00,VWS V14.01,2013-04-23 09:11:00,
2013-04-23 05:12:00,43.3,34.2,30.13,SSE,150,0.0,0.0,70,0.00,,---,0.00,0.00,VWS V14.01,2013-04-23 09:12:00,
2013-04-23 05:13:00,43.2,33.7,30.13,SSE,150,0.0,0.0,69,0.00,,---,0.00,0.00,VWS V14.01,2013-04-23 09:13:00,
2013-04-23 05:14:00,43.2,33.7,30.13,SSE,150,0.0,0.0,69,0.00,,---,0.00,0.00,VWS V14.01,2013-04-23 09:14:00,
2013-04-23 05:15:00,43.1,34.3,30.13,SSE,150,0.0,0.0,71,0.00,,---,0.00,0.00,VWS V14.01,2013-04-23 09:15:00,
2013-04-23 05:16:00,43.7,34.6,30.13,SSE,150,0.0,1.0,70,0.00,,---,0.00,0.00,VWS V14.01,2013-04-23 09:16:00,
2013-04-23 05:17:00,43.1,34.0,30.13,SSE,150,0.0,0.0,70,0.00,,---,0.00,0.00,VWS V14.01,2013-04-23 09:17:00,
2013-04-23 05:18:00,43.0,33.9,30.13,SSE,150,0.0,0.0,70,0.00,,---,0.00,0.00,VWS V14.01,2013-04-23 09:18:00,
2013-04-23 05:21:00,43.3,34.2,30.13,SSE,150,0.0,0.0,70,0.00,,---,0.00,0.00,VWS V14.01,2013-04-23 09:21:00,
2013-04-23 05:25:00,43.0,33.5,30.13,SSE,150,0.0,0.0,69,0.00,,---,0.00,0.00,VWS V14.01,2013-04-23 09:25:00,
2013-04-23 05:26:00,43.1,34.3,30.13,SSE,150,0.0,0.0,71,0.00,,---,0.00,0.00,VWS V14.01,2013-04-23 09:26:00,
2013-04-23 05:27:00,43.1,33.6,30.13,SSE,150,0.0,0.0,69,0.00,,---,0.00,0.00,VWS V14.01,2013-04-23 09:27:00,
2013-04-23 05:28:00,43.1,34.3,30.13,SSE,150,0.0,0.0,71,0.00,,---,0.00,0.00,VWS V14.01,2013-04-23 09:28:00,
2013-04-23 05:29:00,43.1,34.3,30.13,SSE,150,0.0,0.0,71,0.00,,---,0.00,0.00,VWS V14.01,2013-04-23 09:29:00,
2013-04-23 05:30:00,43.1,34.0,30.13,SSE,150,0.0,0.0,70,0.00,,---,0.00,0.00,VWS V14.01,2013-04-23 09:30:00,
2013-04-23 05:31:00,42.9,33.1,30.13,SSE,150,0.0,0.0,68,0.00,,---,0.00,0.00,VWS V14.01,2013-04-23 09:31:00,
2013-04-23 05:32:00,43.1,34.3,30.13,SSE,150,0.0,0.0,71,0.00,,---,0.00,0.00,VWS V14.01,2013-04-23 09:32:00,
2013-04-23 05:34:00,43.1,34.3,30.13,SSE,150,0.0,0.0,71,0.00,,---,0.00,0.00,VWS V14.01,2013-04-23 09:34:00,
2013-04-23 05:36:00,43.1,33.6,30.13,SSE,150,0.0,0.0,69,0.00,,---,0.00,0.00,VWS V14.01,2013-04-23 09:36:00,
2013-04-23 05:41:00,43.1,34.3,30.13,SSE,150,0.0,0.0,71,0.00,,---,0.00,0.00,VWS V14.01,2013-04-23 09:41:00,
2013-04-23 05:42:00,42.8,34.4,30.13,SSE,150,0.0,0.0,72,0.00,,---,0.00,0.00,VWS V14.01,2013-04-23 09:42:00,
2013-04-23 05:43:00,42.7,34.3,30.13,SSE,150,0.0,0.0,72,0.00,,---,0.00,0.00,VWS V14.01,2013-04-23 09:43:00,
2013-04-23 05:44:00,42.7,34.3,30.14,SSE,150,0.0,0.0,72,0.00,,---,0.00,0.00,VWS V14.01,2013-04-23 09:44:00,
2013-04-23 05:45:00,42.6,34.2,30.13,SSE,150,0.0,0.0,72,0.00,,---,0.00,0.00,VWS V14.01,2013-04-23 09:45:00,
2013-04-23 05:46:00,42.9,34.2,30.14,SSE,150,0.0,0.0,71,0.00,,---,0.00,0.00,VWS V14.01,2013-04-23 09:46:00,
2013-04-23 05:47:00,42.5,34.1,30.13,SSE,150,0.0,0.0,72,0.00,,---,0.00,0.00,VWS V14.01,2013-04-23 09:47:00,
2013-04-23 05:48:00,42.4,34.0,30.13,SSE,150,0.0,1.0,72,0.00,,---,0.00,0.00,VWS V14.01,2013-04-23 09:48:00,
2013-04-23 05:49:00,42.4,34.0,30.13,SSE,150,1.0,1.0,72,0.00,,---,0.00,0.00,VWS V14.01,2013-04-23 09:49:00,
2013-04-23 05:52:00,42.7,34.3,30.13,SSE,150,0.0,0.0,72,0.00,,---,0.00,0.00,VWS V14.01,2013-04-23 09:52:00,
2013-04-23 05:56:00,42.0,34.3,30.13,SE,140,0.0,2.0,74,0.00,,---,0.00,0.00,VWS V14.01,2013-04-23 09:56:00,
2013-04-23 05:57:00,42.5,34.1,30.13,SSE,150,0.0,0.0,72,0.00,,---,0.00,0.00,VWS V14.01,2013-04-23 09:57:00,
2013-04-23 05:58:00,41.9,33.9,30.13,ENE,64,0.0,2.0,73,0.00,,---,0.00,0.00,VWS V14.01,2013-04-23 09:58:00,
2013-04-23 05:59:00,41.9,34.9,30.13,ENE,64,0.0,2.0,76,0.00,,---,0.00,0.00,VWS V14.01,2013-04-23 09:59:00,
2013-04-23 06:00:00,41.8,33.5,30.13,ENE,64,0.0,0.0,72,0.00,,---,0.00,0.00,VWS V14.01,2013-04-23 10:00:00,
2013-04-23 06:01:00,41.8,33.8,30.13,ENE,61,0.0,1.0,73,0.00,,---,0.00,0.00,VWS V14.01,2013-04-23 10:01:00,
2013-04-23 06:02:00,42.2,33.8,30.13,SE,140,0.0,2.0,72,0.00,,---,0.00,0.00,VWS V14.01,2013-04-23 10:02:00,
2013-04-23 06:03:00,41.7,33.3,30.12,ENE,61,0.0,1.0,72,0.00,,---,0.00,0.00,VWS V14.01,2013-04-23 10:03:00,
2013-04-23 06:04:00,41.6,33.6,30.12,ENE,61,0.0,1.0,73,0.00,,---,0.00,0.00,VWS V14.01,2013-04-23 10:04:00,
2013-04-23 06:07:00,41.9,33.9,30.13,ENE,64,0.0,2.0,73,0.00,,---,0.00,0.00,VWS V14.01,2013-04-23 10:07:00,
2013-04-23 06:11:00,41.4,33.8,30.13,ENE,61,0.0,0.0,74,0.00,,---,0.00,0.00,VWS V14.01,2013-04-23 10:11:00,
2013-04-23 06:12:00,41.7,33.3,30.12,ENE,61,0.0,1.0,72,0.00,,---,0.00,0.00,VWS V14.01,2013-04-23 10:12:00,
2013-04-23 06:13:00,41.3,33.7,30.13,ENE,61,0.0,0.0,74,0.00,,---,0.00,0.00,VWS V14.01,2013-04-23 10:13:00,
2013-04-23 06:14:00,41.3,33.3,30.13,ENE,61,0.0,0.0,73,0.00,,---,0.00,0.00,VWS V14.01,2013-04-23 10:14:00,
2013-04-23 06:15:00,41.3,33.3,30.13,ENE,61,0.0,0.0,73,0.00,,---,0.00,0.00,VWS V14.01,2013-04-23 10:15:00,
2013-04-23 06:16:00,41.3,33.3,30.13,ENE,61,0.0,0.0,73,0.00,,---,0.00,0.00,VWS V14.01,2013-04-23 10:16:00,
2013-04-23 06:17:00,41.5,34.2,30.13,ENE,61,0.0,1.0,75,0.00,,---,0.00,0.00,VWS V14.01,2013-04-23 10:17:00,
2013-04-23 06:18:00,41.3,33.3,30.13,ENE,61,0.0,0.0,73,0.00,,---,0.00,0.00,VWS V14.01,2013-04-23 10:18:00,
2013-04-23 06:19:00,41.3,33.3,30.13,ENE,61,0.0,0.0,73,0.00,,---,0.00,0.00,VWS V14.01,2013-04-23 10:19:00,
2013-04-23 06:22:00,41.3,33.7,30.13,ENE,61,0.0,0.0,74,0.00,,---,0.00,0.00,VWS V14.01,2013-04-23 10:22:00,
2013-04-23 06:25:00,41.4,33.4,30.13,ENE,61,0.0,0.0,73,0.00,,---,0.00,0.00,VWS V14.01,2013-04-23 10:25:00,
2013-04-23 06:26:00,41.5,33.5,30.13,ENE,61,0.0,0.0,73,0.00,,---,0.00,0.00,VWS V14.01,2013-04-23 10:26:00,
2013-04-23 06:27:00,41.3,33.3,30.13,ENE,61,0.0,0.0,73,0.00,,---,0.00,0.00,VWS V14.01,2013-04-23 10:27:00,
2013-04-23 06:28:00,41.5,33.5,30.13,ENE,61,0.0,0.0,73,0.00,,---,0.00,0.00,VWS V14.01,2013-04-23 10:28:00,
2013-04-23 06:29:00,41.5,33.2,30.13,ENE,61,0.0,0.0,72,0.00,,---,0.00,0.00,VWS V14.01,2013-04-23 10:29:00,
2013-04-23 06:30:00,41.5,33.2,30.13,ENE,61,0.0,0.0,72,0.00,,---,0.00,0.00,VWS V14.01,2013-04-23 10:30:00,
2013-04-23 06:31:00,41.6,32.9,30.13,ENE,61,0.0,0.0,71,0.00,,---,0.00,0.00,VWS V14.01,2013-04-23 10:31:00,
2013-04-23 06:32:00,41.4,33.1,30.13,ENE,61,0.0,0.0,72,0.00,,---,0.00,0.00,VWS V14.01,2013-04-23 10:32:00,
2013-04-23 06:34:00,41.6,32.9,30.13,ENE,61,0.0,0.0,71,0.00,,---,0.00,0.00,VWS V14.01,2013-04-23 10:34:00,
2013-04-23 06:38:00,41.5,33.5,30.13,ENE,61,0.0,0.0,73,0.00,,---,0.00,0.00,VWS V14.01,2013-04-23 10:38:00,
2013-04-23 06:39:00,41.8,33.5,30.13,ENE,61,0.0,0.0,72,0.00,,---,0.00,5.00,VWS V14.01,2013-04-23 10:39:00,
2013-04-23 06:40:00,41.8,33.1,30.13,ENE,61,0.0,0.0,71,0.00,,---,0.00,7.00,VWS V14.01,2013-04-23 10:40:00,
2013-04-23 06:41:00,41.8,33.5,30.13,ENE,61,0.0,0.0,72,0.00,,---,0.00,7.00,VWS V14.01,2013-04-23 10:41:00,
2013-04-23 06:42:00,41.8,33.1,30.13,ENE,61,0.0,0.0,71,0.00,,---,0.00,7.00,VWS V14.01,2013-04-23 10:42:00,
2013-04-23 06:43:00,41.6,33.3,30.13,ENE,61,0.0,0.0,72,0.00,,---,0.00,0.00,VWS V14.01,2013-04-23 10:43:00,
2013-04-23 06:44:00,41.8,33.5,30.13,ENE,61,0.0,1.0,72,0.00,,---,0.00,9.00,VWS V14.01,2013-04-23 10:44:00,
2013-04-23 06:45:00,41.8,33.8,30.13,ENE,61,0.0,1.0,73,0.00,,---,0.00,9.00,VWS V14.01,2013-04-23 10:45:00,
2013-04-23 06:48:00,41.8,33.5,30.13,ENE,61,0.0,0.0,72,0.00,,---,0.00,5.00,VWS V14.01,2013-04-23 10:48:00,
2013-04-23 06:50:00,41.6,33.9,30.13,ENE,61,0.0,0.0,74,0.00,,---,0.00,12.00,VWS V14.01,2013-04-23 10:50:00,
2013-04-23 06:51:00,41.5,33.8,30.13,ENE,61,0.0,0.0,74,0.00,,---,0.00,12.00,VWS V14.01,2013-04-23 10:51:00,
2013-04-23 06:52:00,41.5,33.8,30.13,ENE,61,0.0,0.0,74,0.00,,---,0.00,14.00,VWS V14.01,2013-04-23 10:52:00,
2013-04-23 06:53:00,41.8,33.5,30.13,ENE,61,0.0,1.0,72,0.00,,---,0.00,9.00,VWS V14.01,2013-04-23 10:53:00,
2013-04-23 06:54:00,41.4,34.1,30.13,ENE,61,0.0,0.0,75,0.00,,---,0.00,14.00,VWS V14.01,2013-04-23 10:54:00,
2013-04-23 06:55:00,41.4,33.8,30.13,ENE,61,0.0,0.0,74,0.00,,---,0.00,14.00,VWS V14.01,2013-04-23 10:55:00,
2013-04-23 06:56:00,41.4,33.4,30.13,ENE,61,0.0,0.0,73,0.00,,---,0.00,16.00,VWS V14.01,2013-04-23 10:56:00,
2013-04-23 06:58:00,41.7,34.0,30.13,ENE,61,0.0,1.0,74,0.00,,---,0.00,11.00,VWS V14.01,2013-04-23 10:58:00,
2013-04-23 07:02:00,41.3,33.7,30.12,ENE,61,0.0,2.0,74,0.00,,---,0.00,18.00,VWS V14.01,2013-04-23 11:02:00,
2013-04-23 07:03:00,41.4,34.1,30.13,ENE,61,0.0,0.0,75,0.00,,---,0.00,14.00,VWS V14.01,2013-04-23 11:03:00,
2013-04-23 07:04:00,41.2,33.5,30.12,ENE,61,0.0,2.0,74,0.00,,---,0.00,19.00,VWS V14.01,2013-04-23 11:04:00,
2013-04-23 07:05:00,41.2,33.5,30.12,ENE,61,0.0,2.0,74,0.00,,---,0.00,19.00,VWS V14.01,2013-04-23 11:05:00,
2013-04-23 07:06:00,41.2,33.9,30.12,ENE,61,0.0,2.0,75,0.00,,---,0.00,21.00,VWS V14.01,2013-04-23 11:06:00,
2013-04-23 07:07:00,41.2,33.5,30.12,ENE,61,0.0,2.0,74,0.00,,---,0.00,21.00,VWS V14.01,2013-04-23 11:07:00,
2013-04-23 07:08:00,41.3,34.3,30.13,ENE,61,0.0,0.0,76,0.00,,---,0.00,18.00,VWS V14.01,2013-04-23 11:08:00,
2013-04-23 07:14:00,41.2,33.5,30.12,ENE,61,0.0,2.0,74,0.00,,---,0.00,19.00,VWS V14.01,2013-04-23 11:14:00,
2013-04-23 07:15:00,41.1,33.8,30.13,ENE,61,0.0,1.0,75,0.00,,---,0.00,25.00,VWS V14.01,2013-04-23 11:15:00,
2013-04-23 07:16:00,41.1,33.8,30.13,ENE,61,0.0,1.0,75,0.00,,---,0.00,25.00,VWS V14.01,2013-04-23 11:16:00,
2013-04-23 07:17:00,41.1,33.8,30.13,ENE,61,0.0,1.0,75,0.00,,---,0.00,26.00,VWS V14.01,2013-04-23 11:17:00,
2013-04-23 07:18:00,41.1,33.8,30.13,ENE,61,0.0,1.0,75,0.00,,---,0.00,26.00,VWS V14.01,2013-04-23 11:18:00,
2013-04-23 07:19:00,41.1,33.5,30.12,ENE,61,0.0,2.0,74,0.00,,---,0.00,23.00,VWS V14.01,2013-04-23 11:19:00,
2013-04-23 07:20:00,41.2,33.9,30.13,ENE,61,0.0,0.0,75,0.00,,---,0.00,26.00,VWS V14.01,2013-04-23 11:20:00,
2013-04-23 07:21:00,41.2,33.9,30.13,ENE,61,0.0,0.0,75,0.00,,---,0.00,28.00,VWS V14.01,2013-04-23 11:21:00,
2013-04-23 07:24:00,41.1,33.5,30.13,ENE,61,0.0,1.0,74,0.00,,---,0.00,25.00,VWS V14.01,2013-04-23 11:24:00,
2013-04-23 07:28:00,41.4,34.4,30.14,ENE,61,0.0,0.0,76,0.00,,---,0.00,30.00,VWS V14.01,2013-04-23 11:28:00,
2013-04-23 07:29:00,41.2,33.9,30.13,ENE,61,0.0,0.0,75,0.00,,---,0.00,26.00,VWS V14.01,2013-04-23 11:29:00,
2013-04-23 07:30:00,41.4,34.4,30.14,ENE,61,0.0,0.0,76,0.00,,---,0.00,32.00,VWS V14.01,2013-04-23 11:30:00,
2013-04-23 07:31:00,41.5,34.5,30.14,ENE,61,0.0,0.0,76,0.00,,---,0.00,33.00,VWS V14.01,2013-04-23 11:31:00,
2013-04-23 07:32:00,41.5,34.2,30.14,ENE,61,0.0,0.0,75,0.00,,---,0.00,33.00,VWS V14.01,2013-04-23 11:32:00,
2013-04-23 07:33:00,41.5,34.2,30.14,ENE,61,0.0,0.0,75,0.00,,---,0.00,33.00,VWS V14.01,2013-04-23 11:33:00,
2013-04-23 07:34:00,41.3,34.0,30.14,ENE,61,0.0,0.0,75,0.00,,---,0.00,28.00,VWS V14.01,2013-04-23 11:34:00,
2013-04-23 07:35:00,41.6,34.9,30.14,ENE,61,0.0,0.0,77,0.00,,---,0.00,35.00,VWS V14.01,2013-04-23 11:35:00,
2013-04-23 07:36:00,41.7,35.0,30.14,ENE,61,0.0,0.0,77,0.00,,---,0.00,35.00,VWS V14.01,2013-04-23 11:36:00,
2013-04-23 07:39:00,41.4,34.1,30.14,ENE,61,0.0,0.0,75,0.00,,---,0.00,32.00,VWS V14.01,2013-04-23 11:39:00,
2013-04-23 07:42:00,41.9,34.6,30.15,ENE,61,0.0,0.0,75,0.00,,---,0.00,37.00,VWS V14.01,2013-04-23 11:42:00,
2013-04-23 07:43:00,41.9,34.6,30.15,ENE,61,0.0,1.0,75,0.00,,---,0.00,37.00,VWS V14.01,2013-04-23 11:43:00,
2013-04-23 07:44:00,41.6,34.3,30.14,ENE,61,0.0,0.0,75,0.00,,---,0.00,35.00,VWS V14.01,2013-04-23 11:44:00,
2013-04-23 07:45:00,42.0,34.7,30.15,ENE,61,0.0,1.0,75,0.00,,---,0.00,39.00,VWS V14.01,2013-04-23 11:45:00,
2013-04-23 07:46:00,42.0,35.0,30.16,ENE,61,0.0,1.0,76,0.00,,---,0.00,40.00,VWS V14.01,2013-04-23 11:46:00,
2013-04-23 07:47:00,42.1,35.1,30.16,ENE,61,0.0,1.0,76,0.00,,---,0.00,42.00,VWS V14.01,2013-04-23 11:47:00,
2013-04-23 07:49:00,41.8,34.8,30.15,ENE,61,0.0,0.0,76,0.00,,---,0.00,35.00,VWS V14.01,2013-04-23 11:49:00,
2013-04-23 07:54:00,42.0,34.7,30.15,ENE,61,0.0,1.0,75,0.00,,---,0.00,39.00,VWS V14.01,2013-04-23 11:54:00,
2013-04-23 07:55:00,42.4,34.7,30.16,ENE,61,0.0,0.0,74,0.00,,---,0.00,53.00,VWS V14.01,2013-04-23 11:55:00,
2013-04-23 07:56:00,42.5,34.8,30.16,ENE,61,0.0,0.0,74,0.00,,---,0.00,56.00,VWS V14.01,2013-04-23 11:56:00,
2013-04-23 07:57:00,42.6,34.9,30.16,ENE,61,0.0,0.0,74,0.00,,---,0.00,54.00,VWS V14.01,2013-04-23 11:57:00,
2013-04-23 07:58:00,42.7,35.0,30.16,ENE,61,0.0,0.0,74,0.00,,---,0.00,62.00,VWS V14.01,2013-04-23 11:58:00,
2013-04-23 07:59:00,42.2,35.2,30.16,ENE,61,0.0,0.0,76,0.00,,---,0.00,44.00,VWS V14.01,2013-04-23 11:59:00,
2013-04-23 08:05:00,42.4,34.7,30.16,ENE,61,0.0,0.0,74,0.00,,---,0.00,54.00,VWS V14.01,2013-04-23 12:05:00,
2013-04-23 08:06:00,43.6,36.2,30.16,ENE,61,0.0,3.0,75,0.00,,---,0.00,60.00,VWS V14.01,2013-04-23 12:06:00,
2013-04-23 08:07:00,43.7,36.3,30.16,ENE,61,0.0,3.0,75,0.00,,---,0.00,70.00,VWS V14.01,2013-04-23 12:07:00,
2013-04-23 08:08:00,43.8,36.4,30.16,ENE,61,0.0,3.0,75,0.00,,---,0.00,90.00,VWS V14.01,2013-04-23 12:08:00,
2013-04-23 08:09:00,43.9,36.8,30.16,ENE,61,0.0,3.0,76,0.00,,---,0.00,70.00,VWS V14.01,2013-04-23 12:09:00,
2013-04-23 08:10:00,43.0,35.3,30.16,ENE,61,0.0,0.0,74,0.00,,---,0.00,76.00,VWS V14.01,2013-04-23 12:10:00,
2013-04-23 08:11:00,44.1,37.0,30.16,ENE,61,0.0,0.0,76,0.00,,---,0.00,65.00,VWS V14.01,2013-04-23 12:11:00,
2013-04-23 08:12:00,44.2,37.1,30.16,ENE,61,0.0,0.0,76,0.00,,---,0.00,72.00,VWS V14.01,2013-04-23 12:12:00,
2013-04-23 08:14:00,44.4,37.0,30.16,ENE,61,0.0,1.0,75,0.00,,---,0.00,77.00,VWS V14.01,2013-04-23 12:14:00,
2013-04-23 08:15:00,43.5,35.8,30.16,ENE,61,0.0,3.0,74,0.00,,---,0.00,60.00,VWS V14.01,2013-04-23 12:15:00,
2013-04-23 08:20:00,44.0,36.9,30.16,ENE,61,0.0,0.0,76,0.00,,---,0.00,65.00,VWS V14.01,2013-04-23 12:20:00,
2013-04-23 08:21:00,45.2,36.7,30.17,ENE,61,0.0,1.0,72,0.00,,---,0.00,221.00,VWS V14.01,2013-04-23 12:21:00,
2013-04-23 08:22:00,45.4,36.9,30.17,ENE,61,0.0,1.0,72,0.00,,---,0.00,243.00,VWS V14.01,2013-04-23 12:22:00,
2013-04-23 08:23:00,45.6,37.1,30.17,ENE,61,0.0,1.0,72,0.00,,---,0.00,246.00,VWS V14.01,2013-04-23 12:23:00,
2013-04-23 08:24:00,45.7,37.5,30.17,ENE,61,0.0,1.0,73,0.00,,---,0.00,250.00,VWS V14.01,2013-04-23 12:24:00,
2013-04-23 08:25:00,44.6,37.2,30.16,ENE,61,0.0,2.0,75,0.00,,---,0.00,98.00,VWS V14.01,2013-04-23 12:25:00,
2013-04-23 08:26:00,46.1,37.6,30.17,ENE,66,1.0,3.0,72,0.00,,---,0.00,257.00,VWS V14.01,2013-04-23 12:26:00,
2013-04-23 08:27:00,46.3,37.8,30.17,NE,51,1.0,4.0,72,0.00,,---,0.00,260.00,VWS V14.01,2013-04-23 12:27:00,
2013-04-23 08:28:00,46.5,37.3,30.17,NE,56,1.0,4.0,70,0.00,,---,0.00,264.00,VWS V14.01,2013-04-23 12:28:00,
2013-04-23 08:30:00,45.2,36.7,30.17,ENE,61,0.0,1.0,72,0.00,,---,0.00,221.00,VWS V14.01,2013-04-23 12:30:00,
2013-04-23 08:34:00,47.7,38.4,30.18,ENE,65,0.0,2.0,70,0.00,,---,0.00,285.00,VWS V14.01,2013-04-23 12:34:00,
2013-04-23 08:35:00,46.0,37.5,30.17,ENE,66,0.0,3.0,72,0.00,,---,0.00,257.00,VWS V14.01,2013-04-23 12:35:00,
2013-04-23 08:36:00,48.1,38.4,30.18,ENE,65,0.0,2.0,69,0.00,,---,0.00,290.00,VWS V14.01,2013-04-23 12:36:00,
2013-04-23 08:37:00,48.3,37.9,30.18,ENE,65,0.0,2.0,67,0.00,,---,0.00,295.00,VWS V14.01,2013-04-23 12:37:00,
2013-04-23 08:38:00,48.4,37.6,30.17,ENE,65,0.0,2.0,66,0.00,,---,0.00,297.00,VWS V14.01,2013-04-23 12:38:00,
2013-04-23 08:39:00,48.6,37.4,30.17,ENE,65,0.0,2.0,65,0.00,,---,0.00,302.00,VWS V14.01,2013-04-23 12:39:00,
2013-04-23 08:40:00,47.1,37.1,30.17,ENE,65,0.0,2.0,68,0.00,,---,0.00,274.00,VWS V14.01,2013-04-23 12:40:00,
2013-04-23 08:41:00,49.0,38.5,30.17,ENE,65,2.0,3.0,67,0.00,,---,0.00,308.00,VWS V14.01,2013-04-23 12:41:00,
2013-04-23 08:43:00,49.3,38.4,30.17,ENE,64,0.0,3.0,66,0.00,,---,0.00,318.00,VWS V14.01,2013-04-23 12:43:00,
2013-04-23 08:46:00,48.1,38.4,30.18,ENE,65,0.0,2.0,69,0.00,,---,0.00,292.00,VWS V14.01,2013-04-23 12:46:00,
2013-04-23 08:48:00,50.0,37.9,30.16,ENE,64,0.0,3.0,63,0.00,,---,0.00,334.00,VWS V14.01,2013-04-23 12:48:00,
2013-04-23 08:49:00,50.1,38.4,30.16,ENE,61,3.0,3.0,64,0.00,,---,0.00,339.00,VWS V14.01,2013-04-23 12:49:00,
2013-04-23 08:50:00,50.1,37.6,30.16,ENE,59,2.0,5.0,62,0.00,,---,0.00,343.00,VWS V14.01,2013-04-23 12:50:00,
2013-04-23 08:51:00,49.0,38.5,30.17,ENE,65,0.0,3.0,67,0.00,,---,0.00,311.00,VWS V14.01,2013-04-23 12:51:00,
2013-04-23 08:52:00,50.3,38.6,30.16,NE,51,1.0,5.0,64,0.00,,---,0.00,350.00,VWS V14.01,2013-04-23 12:52:00,
2013-04-23 08:53:00,50.4,38.3,30.16,NE,54,0.0,5.0,63,0.00,,---,0.00,357.00,VWS V14.01,2013-04-23 12:53:00,
2013-04-23 08:54:00,50.5,38.4,30.16,NE,53,1.0,5.0,63,0.00,,---,0.00,364.00,VWS V14.01,2013-04-23 12:54:00,
2013-04-23 08:56:00,49.8,38.1,30.16,ENE,64,0.0,3.0,64,0.00,,---,0.00,330.00,VWS V14.01,2013-04-23 12:56:00,
2013-04-23 09:01:00,50.3,38.6,30.16,ENE,59,0.0,5.0,64,0.00,,---,0.00,350.00,VWS V14.01,2013-04-23 13:01:00,
2013-04-23 09:02:00,51.1,39.0,30.16,ENE,66,0.0,6.0,63,0.00,,---,0.00,387.00,VWS V14.01,2013-04-23 13:02:00,
2013-04-23 09:03:00,51.2,39.5,30.16,ENE,66,1.0,6.0,64,0.00,,---,0.00,392.00,VWS V14.01,2013-04-23 13:03:00,
2013-04-23 09:04:00,51.2,39.5,30.15,NE,53,2.0,6.0,64,0.00,,---,0.00,396.00,VWS V14.01,2013-04-23 13:04:00,
2013-04-23 09:05:00,51.4,40.0,30.15,NE,34,4.0,6.0,65,0.00,,---,0.00,397.00,VWS V14.01,2013-04-23 13:05:00,
2013-04-23 09:06:00,50.6,38.9,30.17,NE,50,0.0,5.0,64,0.00,,---,0.00,369.00,VWS V14.01,2013-04-23 13:06:00,
2013-04-23 09:07:00,51.5,39.3,30.16,ENE,64,1.0,6.0,63,0.00,,---,0.00,406.00,VWS V14.01,2013-04-23 13:07:00,
2013-04-23 09:08:00,51.6,39.8,30.16,ENE,61,0.0,6.0,64,0.00,,---,0.00,411.00,VWS V14.01,2013-04-23 13:08:00,
2013-04-23 09:09:00,51.7,39.5,30.16,ENE,67,3.0,6.0,63,0.00,,---,0.00,413.00,VWS V14.01,2013-04-23 13:09:00,
2013-04-23 09:11:00,51.0,38.9,30.16,ENE,66,0.0,6.0,63,0.00,,---,0.00,387.00,VWS V14.01,2013-04-23 13:11:00,
2013-04-23 09:16:00,51.5,39.3,30.16,ENE,64,0.0,6.0,63,0.00,,---,0.00,406.00,VWS V14.01,2013-04-23 13:16:00,
2013-04-23 09:17:00,52.0,40.2,30.17,NE,47,0.0,4.0,64,0.00,,---,0.00,441.00,VWS V14.01,2013-04-23 13:17:00,
2013-04-23 09:18:00,52.1,40.3,30.17,NE,45,1.0,4.0,64,0.00,,---,0.00,448.00,VWS V14.01,2013-04-23 13:18:00,
2013-04-23 09:19:00,52.2,40.0,30.17,NE,44,2.0,4.0,63,0.00,,---,0.00,450.00,VWS V14.01,2013-04-23 13:19:00,
2013-04-23 09:20:00,52.3,40.5,30.17,NE,44,0.0,2.0,64,0.00,,---,0.00,454.00,VWS V14.01,2013-04-23 13:20:00,
2013-04-23 09:21:00,51.9,39.3,30.16,NE,37,3.0,4.0,62,0.00,,---,0.00,427.00,VWS V14.01,2013-04-23 13:21:00,
2013-04-23 09:22:00,52.6,41.6,30.17,NE,49,1.0,4.0,66,0.00,,---,0.00,461.00,VWS V14.01,2013-04-23 13:22:00,
2013-04-23 09:23:00,52.7,40.5,30.16,NE,49,0.0,4.0,63,0.00,,---,0.00,466.00,VWS V14.01,2013-04-23 13:23:00,
2013-04-23 09:25:00,52.9,40.7,30.16,ENE,68,2.0,6.0,63,0.00,,---,0.00,476.00,VWS V14.01,2013-04-23 13:25:00,
2013-04-23 09:27:00,52.0,40.2,30.17,NE,47,0.0,4.0,64,0.00,,---,0.00,445.00,VWS V14.01,2013-04-23 13:27:00,
2013-04-23 09:31:00,53.3,40.6,30.15,ENE,57,1.0,2.0,62,0.00,,---,0.00,501.00,VWS V14.01,2013-04-23 13:31:00,
2013-04-23 09:32:00,52.7,41.7,30.16,NE,49,3.0,4.0,66,0.00,,---,0.00,462.00,VWS V14.01,2013-04-23 13:32:00,
2013-04-23 09:33:00,53.4,41.9,30.15,NE,53,3.0,3.0,65,0.00,,---,0.00,504.00,VWS V14.01,2013-04-23 13:33:00,
2013-04-23 09:34:00,53.5,40.8,30.15,NE,55,0.0,3.0,62,0.00,,---,0.00,503.00,VWS V14.01,2013-04-23 13:34:00,
2013-04-23 09:35:00,53.5,41.2,30.15,NE,48,2.0,3.0,63,0.00,,---,0.00,508.00,VWS V14.01,2013-04-23 13:35:00,
2013-04-23 09:36:00,53.6,40.9,30.15,ENE,64,3.0,4.0,62,0.00,,---,0.00,515.00,VWS V14.01,2013-04-23 13:36:00,
2013-04-23 09:37:00,53.0,40.3,30.15,ENE,59,2.0,6.0,62,0.00,,---,0.00,487.00,VWS V14.01,2013-04-23 13:37:00,
2013-04-23 09:38:00,53.7,41.4,30.15,NE,38,1.0,4.0,63,0.00,,---,0.00,520.00,VWS V14.01,2013-04-23 13:38:00,
2013-04-23 09:39:00,53.8,41.9,30.14,NE,42,2.0,4.0,64,0.00,,---,0.00,531.00,VWS V14.01,2013-04-23 13:39:00,
2013-04-23 09:42:00,53.4,40.7,30.15,NE,36,0.0,3.0,62,0.00,,---,0.00,504.00,VWS V14.01,2013-04-23 13:42:00,
2013-04-23 09:45:00,54.0,40.4,30.14,NNE,32,2.0,6.0,60,0.00,,---,0.00,552.00,VWS V14.01,2013-04-23 13:45:00,
2013-04-23 09:46:00,54.1,41.4,30.14,NNE,32,0.0,6.0,62,0.00,,---,0.00,555.00,VWS V14.01,2013-04-23 13:46:00,
2013-04-23 09:47:00,53.7,41.4,30.15,NE,38,0.0,4.0,63,0.00,,---,0.00,520.00,VWS V14.01,2013-04-23 13:47:00,
2013-04-23 09:48:00,54.2,41.5,30.14,NE,45,0.0,6.0,62,0.00,,---,0.00,566.00,VWS V14.01,2013-04-23 13:48:00,
2013-04-23 09:49:00,54.3,41.6,30.14,NE,46,1.0,6.0,62,0.00,,---,0.00,566.00,VWS V14.01,2013-04-23 13:49:00,
2013-04-23 09:50:00,54.4,40.8,30.14,ENE,65,1.0,6.0,60,0.00,,---,0.00,570.00,VWS V14.01,2013-04-23 13:50:00,
2013-04-23 09:51:00,54.4,41.7,30.14,NE,34,2.0,6.0,62,0.00,,---,0.00,573.00,VWS V14.01,2013-04-23 13:51:00,
2013-04-23 09:52:00,54.1,40.5,30.14,NNE,26,4.0,6.0,60,0.00,,---,0.00,547.00,VWS V14.01,2013-04-23 13:52:00,
2013-04-23 09:54:00,54.8,42.9,30.14,ENE,58,1.0,6.0,64,0.00,,---,0.00,584.00,VWS V14.01,2013-04-23 13:54:00,
2013-04-23 09:57:00,54.1,41.4,30.14,NE,45,2.0,6.0,62,0.00,,---,0.00,561.00,VWS V14.01,2013-04-23 13:57:00,
2013-04-23 09:59:00,55.2,41.1,30.16,NE,36,2.0,6.0,59,0.00,,---,0.00,599.00,VWS V14.01,2013-04-23 13:59:00,
2013-04-23 10:00:00,55.3,41.7,30.16,NE,35,2.0,3.0,60,0.00,,---,0.00,603.00,VWS V14.01,2013-04-23 14:00:00,
2013-04-23 10:01:00,55.3,42.1,30.16,NE,34,2.0,3.0,61,0.00,,---,0.00,605.00,VWS V14.01,2013-04-23 14:01:00,
2013-04-23 10:02:00,54.6,41.9,30.15,NE,51,0.0,6.0,62,0.00,,---,0.00,577.00,VWS V14.01,2013-04-23 14:02:00,
2013-04-23 10:03:00,55.4,41.3,30.16,NE,34,2.0,4.0,59,0.00,,---,0.00,610.00,VWS V14.01,2013-04-23 14:03:00,
2013-04-23 10:04:00,55.4,40.4,30.16,NNE,32,1.0,4.0,57,0.00,,---,0.00,617.00,VWS V14.01,2013-04-23 14:04:00,
2013-04-23 10:05:00,55.4,41.3,30.16,NNE,32,0.0,4.0,59,0.00,,---,0.00,619.00,VWS V14.01,2013-04-23 14:05:00,
2013-04-23 10:06:00,55.4,42.2,30.16,NNE,29,1.0,4.0,61,0.00,,---,0.00,622.00,VWS V14.01,2013-04-23 14:06:00,
2013-04-23 10:07:00,55.5,42.3,30.16,NNE,30,3.0,4.0,61,0.00,,---,0.00,628.00,VWS V14.01,2013-04-23 14:07:00,
2013-04-23 10:08:00,55.1,40.6,30.15,ENE,60,2.0,6.0,58,0.00,,---,0.00,594.00,VWS V14.01,2013-04-23 14:08:00,
2013-04-23 10:13:00,55.4,41.3,30.16,NNE,33,2.0,4.0,59,0.00,,---,0.00,612.00,VWS V14.01,2013-04-23 14:13:00,
2013-04-23 10:14:00,56.4,42.3,30.16,NE,35,1.0,2.0,59,0.00,,---,0.00,367.00,VWS V14.01,2013-04-23 14:14:00,
2013-04-23 10:15:00,56.6,41.6,30.16,NE,35,0.0,2.0,57,0.00,,---,0.00,566.00,VWS V14.01,2013-04-23 14:15:00,
2013-04-23 10:16:00,56.6,41.6,30.16,NE,35,0.0,2.0,57,0.00,,---,0.00,652.00,VWS V14.01,2013-04-23 14:16:00,
2013-04-23 10:17:00,56.7,41.2,30.16,NE,35,0.0,2.0,56,0.00,,---,0.00,661.00,VWS V14.01,2013-04-23 14:17:00,
2013-04-23 10:18:00,55.6,43.2,30.16,NNE,32,1.0,4.0,63,0.00,,---,0.00,603.00,VWS V14.01,2013-04-23 14:18:00,
2013-04-23 10:19:00,56.8,40.8,30.16,NE,35,0.0,2.0,55,0.00,,---,0.00,664.00,VWS V14.01,2013-04-23 14:19:00,
2013-04-23 10:20:00,56.8,41.3,30.16,NE,35,2.0,3.0,56,0.00,,---,0.00,670.00,VWS V14.01,2013-04-23 14:20:00,
2013-04-23 10:22:00,56.8,40.3,30.16,NE,35,0.0,3.0,54,0.00,,---,0.00,680.00,VWS V14.01,2013-04-23 14:22:00,
2013-04-23 10:23:00,56.4,42.7,30.16,NE,35,0.0,2.0,60,0.00,,---,0.00,367.00,VWS V14.01,2013-04-23 14:23:00,
2013-04-23 10:27:00,57.1,41.1,30.16,NE,35,0.0,3.0,55,0.00,,---,0.00,700.00,VWS V14.01,2013-04-23 14:27:00,
2013-04-23 10:28:00,56.8,40.8,30.16,NE,35,0.0,2.0,55,0.00,,---,0.00,664.00,VWS V14.01,2013-04-23 14:28:00,
2013-04-23 10:29:00,57.2,40.2,30.16,NNE,32,0.0,3.0,53,0.00,,---,0.00,714.00,VWS V14.01,2013-04-23 14:29:00,
2013-04-23 10:30:00,57.2,41.2,30.16,NNE,32,0.0,1.0,55,0.00,,---,0.00,701.00,VWS V14.01,2013-04-23 14:30:00,
2013-04-23 10:31:00,57.2,41.2,30.16,NNE,32,2.0,3.0,55,0.00,,---,0.00,652.00,VWS V14.01,2013-04-23 14:31:00,
2013-04-23 10:32:00,57.2,41.2,30.16,NNE,32,0.0,3.0,55,0.00,,---,0.00,652.00,VWS V14.01,2013-04-23 14:32:00,
2013-04-23 10:33:00,56.8,40.8,30.16,NE,35,0.0,3.0,55,0.00,,---,0.00,682.00,VWS V14.01,2013-04-23 14:33:00,
2013-04-23 10:34:00,57.3,42.7,30.16,NNE,32,0.0,3.0,58,0.00,,---,0.00,733.00,VWS V14.01,2013-04-23 14:34:00,
2013-04-23 10:35:00,57.4,42.3,30.16,NNE,32,0.0,3.0,57,0.00,,---,0.00,724.00,VWS V14.01,2013-04-23 14:35:00,
2013-04-23 10:38:00,57.2,40.2,30.16,NNE,32,0.0,3.0,53,0.00,,---,0.00,708.00,VWS V14.01,2013-04-23 14:38:00,
2013-04-23 10:41:00,58.3,42.7,30.16,NNE,32,0.0,2.0,56,0.00,,---,0.00,694.00,VWS V14.01,2013-04-23 14:41:00,
2013-04-23 10:42:00,58.5,42.9,30.17,NNE,32,0.0,2.0,56,0.00,,---,0.00,719.00,VWS V14.01,2013-04-23 14:42:00,
2013-04-23 10:43:00,57.3,42.7,30.16,NNE,32,1.0,3.0,58,0.00,,---,0.00,728.00,VWS V14.01,2013-04-23 14:43:00,
2013-04-23 10:44:00,58.7,43.1,30.17,NNE,32,0.0,2.0,56,0.00,,---,0.00,726.00,VWS V14.01,2013-04-23 14:44:00,
2013-04-23 10:45:00,58.7,43.1,30.17,NNE,32,0.0,2.0,56,0.00,,---,0.00,749.00,VWS V14.01,2013-04-23 14:45:00,
2013-04-23 10:46:00,58.9,43.7,30.17,NNE,32,0.0,2.0,57,0.00,,---,0.00,749.00,VWS V14.01,2013-04-23 14:46:00,
2013-04-23 10:47:00,59.0,43.3,30.17,NNE,32,0.0,2.0,56,0.00,,---,0.00,752.00,VWS V14.01,2013-04-23 14:47:00,
2013-04-23 10:48:00,58.0,42.9,30.16,NNE,32,0.0,3.0,57,0.00,,---,0.00,740.00,VWS V14.01,2013-04-23 14:48:00,
2013-04-23 10:54:00,58.7,43.1,30.17,NNE,32,0.0,2.0,56,0.00,,---,0.00,745.00,VWS V14.01,2013-04-23 14:54:00,
2013-04-23 10:56:00,59.6,42.5,30.17,NNE,28,0.0,3.0,53,0.00,,---,0.00,770.00,VWS V14.01,2013-04-23 14:56:00,
2013-04-23 10:57:00,59.7,43.0,30.17,NNE,28,0.0,3.0,54,0.00,,---,0.00,775.00,VWS V14.01,2013-04-23 14:57:00,
2013-04-23 10:58:00,59.8,44.1,30.17,NNE,28,0.0,3.0,56,0.00,,---,0.00,786.00,VWS V14.01,2013-04-23 14:58:00,
2013-04-23 10:59:00,59.3,42.7,30.17,NNE,31,2.0,2.0,54,0.00,,---,0.00,752.00,VWS V14.01,2013-04-23 14:59:00,
2013-04-23 11:00:00,59.9,41.8,30.17,NNE,28,0.0,2.0,51,0.00,,---,0.00,791.00,VWS V14.01,2013-04-23 15:00:00,
2013-04-23 11:01:00,59.9,42.2,30.16,NNE,28,1.0,2.0,52,0.00,,---,0.00,791.00,VWS V14.01,2013-04-23 15:01:00,
2013-04-23 11:02:00,59.9,42.7,30.16,NNE,28,0.0,2.0,53,0.00,,---,0.00,749.00,VWS V14.01,2013-04-23 15:02:00,
2013-04-23 11:03:00,59.9,43.2,30.16,NNE,28,0.0,2.0,54,0.00,,---,0.00,782.00,VWS V14.01,2013-04-23 15:03:00,
2013-04-23 11:04:00,59.5,41.9,30.17,NNE,28,0.0,3.0,52,0.00,,---,0.00,765.00,VWS V14.01,2013-04-23 15:04:00,
2013-04-23 11:05:00,60.1,44.4,30.16,NNE,28,0.0,2.0,56,0.00,,---,0.00,802.00,VWS V14.01,2013-04-23 15:05:00,
2013-04-23 11:09:00,59.9,42.2,30.17,NNE,28,2.0,2.0,52,0.00,,---,0.00,791.00,VWS V14.01,2013-04-23 15:09:00,
2013-04-23 11:10:00,60.9,45.1,30.16,NNE,29,0.0,1.0,56,0.00,,---,0.00,812.00,VWS V14.01,2013-04-23 15:10:00,
2013-04-23 11:11:00,60.9,43.2,30.16,NNE,29,0.0,1.0,52,0.00,,---,0.00,810.00,VWS V14.01,2013-04-23 15:11:00,
2013-04-23 11:12:00,61.0,43.3,30.16,NNE,29,0.0,1.0,52,0.00,,---,0.00,823.00,VWS V14.01,2013-04-23 15:12:00,
2013-04-23 11:13:00,61.1,43.9,30.16,NNE,29,0.0,1.0,53,0.00,,---,0.00,784.00,VWS V14.01,2013-04-23 15:13:00,
2013-04-23 11:14:00,60.0,44.3,30.16,NNE,28,0.0,2.0,56,0.00,,---,0.00,800.00,VWS V14.01,2013-04-23 15:14:00,
2013-04-23 11:16:00,61.3,43.5,30.16,NNE,29,0.0,1.0,52,0.00,,---,0.00,826.00,VWS V14.01,2013-04-23 15:16:00,
2013-04-23 11:17:00,61.3,44.0,30.16,NNE,29,0.0,2.0,53,0.00,,---,0.00,830.00,VWS V14.01,2013-04-23 15:17:00,
2013-04-23 11:18:00,61.3,45.0,30.16,NNE,29,0.0,2.0,55,0.00,,---,0.00,831.00,VWS V14.01,2013-04-23 15:18:00,
2013-04-23 11:19:00,60.9,45.1,30.16,NNE,29,0.0,1.0,56,0.00,,---,0.00,812.00,VWS V14.01,2013-04-23 15:19:00,
2013-04-23 11:20:00,61.5,42.7,30.16,NNE,30,0.0,0.0,50,0.00,,---,0.00,838.00,VWS V14.01,2013-04-23 15:20:00,
2013-04-23 11:21:00,61.5,43.7,30.16,NNE,30,0.0,0.0,52,0.00,,---,0.00,842.00,VWS V14.01,2013-04-23 15:21:00,
2013-04-23 11:24:00,61.2,44.0,30.16,NNE,29,1.0,1.0,53,0.00,,---,0.00,807.00,VWS V14.01,2013-04-23 15:24:00,
2013-04-23 11:29:00,61.5,42.7,30.16,NNE,30,0.0,0.0,50,0.00,,---,0.00,837.00,VWS V14.01,2013-04-23 15:29:00,
2013-04-23 11:30:00,62.7,45.3,30.16,NNE,32,0.0,1.0,53,0.00,,---,0.00,860.00,VWS V14.01,2013-04-23 15:30:00,
2013-04-23 11:31:00,62.7,45.8,30.15,NNE,32,0.0,1.0,54,0.00,,---,0.00,865.00,VWS V14.01,2013-04-23 15:31:00,
2013-04-23 11:32:00,62.9,45.5,30.16,NNE,32,0.0,1.0,53,0.00,,---,0.00,837.00,VWS V14.01,2013-04-23 15:32:00,
2013-04-23 11:33:00,63.0,46.6,30.15,NNE,32,0.0,2.0,55,0.00,,---,0.00,868.00,VWS V14.01,2013-04-23 15:33:00,
2013-04-23 11:34:00,62.0,45.7,30.16,NNE,31,0.0,2.0,55,0.00,,---,0.00,849.00,VWS V14.01,2013-04-23 15:34:00,
2013-04-23 11:35:00,63.1,43.7,30.16,NNE,32,0.0,2.0,49,0.00,,---,0.00,870.00,VWS V14.01,2013-04-23 15:35:00,
2013-04-23 11:36:00,63.1,44.7,30.15,NNE,32,1.0,2.0,51,0.00,,---,0.00,872.00,VWS V14.01,2013-04-23 15:36:00,
2013-04-23 11:37:00,63.1,45.2,30.15,NNE,32,1.0,2.0,52,0.00,,---,0.00,877.00,VWS V14.01,2013-04-23 15:37:00,
2013-04-23 11:40:00,62.7,45.3,30.15,NNE,32,0.0,1.0,53,0.00,,---,0.00,860.00,VWS V14.01,2013-04-23 15:40:00,
2013-04-23 11:43:00,62.8,42.8,30.15,NNE,31,0.0,2.0,48,0.00,,---,0.00,886.00,VWS V14.01,2013-04-23 15:43:00,
2013-04-23 11:44:00,62.7,43.3,30.15,NNE,31,0.0,2.0,49,0.00,,---,0.00,891.00,VWS V14.01,2013-04-23 15:44:00,
2013-04-23 11:45:00,63.1,43.7,30.15,NNE,32,0.0,2.0,49,0.00,,---,0.00,870.00,VWS V14.01,2013-04-23 15:45:00,
2013-04-23 11:46:00,62.7,43.3,30.15,NNE,31,0.0,2.0,49,0.00,,---,0.00,893.00,VWS V14.01,2013-04-23 15:46:00,
2013-04-23 11:47:00,62.9,44.0,30.15,NNE,31,0.0,2.0,50,0.00,,---,0.00,898.00,VWS V14.01,2013-04-23 15:47:00,
2013-04-23 11:48:00,63.0,44.1,30.15,NNE,31,2.0,2.0,50,0.00,,---,0.00,898.00,VWS V14.01,2013-04-23 15:48:00,
2013-04-23 11:49:00,63.1,44.2,30.15,NNE,31,1.0,2.0,50,0.00,,---,0.00,898.00,VWS V14.01,2013-04-23 15:49:00,
2013-04-23 11:50:00,63.0,43.0,30.15,NNE,31,0.0,2.0,48,0.00,,---,0.00,881.00,VWS V14.01,2013-04-23 15:50:00,
2013-04-23 11:51:00,63.3,43.3,30.15,NE,40,0.0,2.0,48,0.00,,---,0.00,904.00,VWS V14.01,2013-04-23 15:51:00,
2013-04-23 11:55:00,62.7,43.3,30.15,NNE,31,0.0,2.0,49,0.00,,---,0.00,891.00,VWS V14.01,2013-04-23 15:55:00,
2013-04-23 11:57:00,63.8,44.3,30.15,West,273,0.0,5.0,49,0.00,,---,0.00,914.00,VWS V14.01,2013-04-23 15:57:00,
2013-04-23 11:58:00,63.8,43.8,30.15,SW,232,3.0,5.0,48,0.00,,---,0.00,916.00,VWS V14.01,2013-04-23 15:58:00,
2013-04-23 11:59:00,63.7,43.1,30.15,West,259,0.0,5.0,47,0.00,,---,0.00,919.00,VWS V14.01,2013-04-23 15:59:00,
2013-04-23 12:00:00,63.2,43.2,30.15,NE,40,0.0,2.0,48,0.00,,---,0.00,904.00,VWS V14.01,2013-04-23 16:00:00,
2013-04-23 12:01:00,63.5,43.5,30.15,West,259,0.0,2.0,48,0.00,,---,0.00,923.00,VWS V14.01,2013-04-23 16:01:00,
2013-04-23 12:02:00,63.5,45.1,30.15,West,259,1.0,4.0,51,0.00,,---,0.00,923.00,VWS V14.01,2013-04-23 16:02:00,
2013-04-23 12:03:00,63.5,42.9,30.15,West,266,2.0,4.0,47,0.00,,---,0.00,925.00,VWS V14.01,2013-04-23 16:03:00,
2013-04-23 12:04:00,63.5,44.0,30.15,West,276,1.0,5.0,49,0.00,,---,0.00,926.00,VWS V14.01,2013-04-23 16:04:00,
2013-04-23 12:05:00,63.8,45.9,30.15,WSW,254,2.0,5.0,52,0.00,,---,0.00,912.00,VWS V14.01,2013-04-23 16:05:00,
2013-04-23 12:06:00,63.4,43.4,30.15,West,276,0.0,5.0,48,0.00,,---,0.00,928.00,VWS V14.01,2013-04-23 16:06:00,
2013-04-23 12:10:00,63.5,43.5,30.15,West,259,0.0,2.0,48,0.00,,---,0.00,919.00,VWS V14.01,2013-04-23 16:10:00,
2013-04-23 12:11:00,63.4,43.4,30.14,West,277,0.0,6.0,48,0.00,,---,0.00,937.00,VWS V14.01,2013-04-23 16:11:00,
2013-04-23 12:12:00,63.3,43.8,30.14,SSE,149,0.0,6.0,49,0.00,,---,0.00,939.00,VWS V14.01,2013-04-23 16:12:00,
2013-04-23 12:13:00,63.3,44.9,30.14,SSE,149,0.0,6.0,51,0.00,,---,0.00,940.00,VWS V14.01,2013-04-23 16:13:00,
2013-04-23 12:14:00,63.4,45.5,30.14,SSE,155,2.0,6.0,52,0.00,,---,0.00,942.00,VWS V14.01,2013-04-23 16:14:00,
2013-04-23 12:15:00,63.4,43.4,30.15,West,276,0.0,5.0,48,0.00,,---,0.00,928.00,VWS V14.01,2013-04-23 16:15:00,
2013-04-23 12:16:00,63.5,44.0,30.14,SW,234,5.0,7.0,49,0.00,,---,0.00,944.00,VWS V14.01,2013-04-23 16:16:00,
2013-04-23 12:17:00,63.5,45.1,30.14,WSW,245,2.0,8.0,51,0.00,,---,0.00,947.00,VWS V14.01,2013-04-23 16:17:00,
2013-04-23 12:18:00,63.6,45.2,30.14,WSW,246,0.0,8.0,51,0.00,,---,0.00,947.00,VWS V14.01,2013-04-23 16:18:00,
2013-04-23 12:19:00,63.7,45.2,30.14,WSW,246,4.0,8.0,51,0.00,,---,0.00,949.00,VWS V14.01,2013-04-23 16:19:00,
2013-04-23 12:20:00,63.7,44.7,30.13,WSW,244,4.0,5.0,50,0.00,,---,0.00,951.00,VWS V14.01,2013-04-23 16:20:00,
2013-04-23 12:21:00,63.3,43.3,30.14,SSE,148,2.0,6.0,48,0.00,,---,0.00,937.00,VWS V14.01,2013-04-23 16:21:00,
2013-04-23 12:25:00,63.9,43.8,30.13,WSW,244,1.0,5.0,48,0.00,,---,0.00,960.00,VWS V14.01,2013-04-23 16:25:00,
2013-04-23 12:26:00,63.5,45.1,30.14,SW,235,4.0,7.0,51,0.00,,---,0.00,944.00,VWS V14.01,2013-04-23 16:26:00,
2013-04-23 12:27:00,64.1,43.5,30.12,WSW,244,0.0,5.0,47,0.00,,---,0.00,962.00,VWS V14.01,2013-04-23 16:27:00,
2013-04-23 12:28:00,64.1,45.6,30.12,WSW,244,1.0,5.0,51,0.00,,---,0.00,962.00,VWS V14.01,2013-04-23 16:28:00,
2013-04-23 12:29:00,64.3,46.8,30.12,WSW,244,0.0,5.0,53,0.00,,---,0.00,963.00,VWS V14.01,2013-04-23 16:29:00,
2013-04-23 12:30:00,64.5,46.0,30.12,WSW,244,0.0,0.0,51,0.00,,---,0.00,967.00,VWS V14.01,2013-04-23 16:30:00,
2013-04-23 12:31:00,63.7,43.7,30.13,WSW,244,0.0,5.0,48,0.00,,---,0.00,953.00,VWS V14.01,2013-04-23 16:31:00,
2013-04-23 12:32:00,64.9,46.4,30.12,WSW,244,0.0,2.0,51,0.00,,---,0.00,969.00,VWS V14.01,2013-04-23 16:32:00,
2013-04-23 12:33:00,65.0,45.9,30.12,WSW,244,0.0,2.0,50,0.00,,---,0.00,969.00,VWS V14.01,2013-04-23 16:33:00,
2013-04-23 12:36:00,64.0,43.4,30.12,WSW,244,0.0,5.0,47,0.00,,---,0.00,962.00,VWS V14.01,2013-04-23 16:36:00,
2013-04-23 12:39:00,65.8,43.9,30.12,SSW,193,0.0,3.0,45,0.00,,---,0.00,977.00,VWS V14.01,2013-04-23 16:39:00,
2013-04-23 12:40:00,65.9,44.6,30.12,SW,219,1.0,1.0,46,0.00,,---,0.00,979.00,VWS V14.01,2013-04-23 16:40:00,
2013-04-23 12:41:00,64.8,46.3,30.12,WSW,244,0.0,1.0,51,0.00,,---,0.00,969.00,VWS V14.01,2013-04-23 16:41:00,
2013-04-23 12:42:00,66.0,45.8,30.12,WSW,242,0.0,3.0,48,0.00,,---,0.00,981.00,VWS V14.01,2013-04-23 16:42:00,
2013-04-23 12:43:00,66.1,47.5,30.12,WSW,252,2.0,4.0,51,0.00,,---,0.00,983.00,VWS V14.01,2013-04-23 16:43:00,
2013-04-23 12:44:00,66.1,47.5,30.12,WSW,245,2.0,6.0,51,0.00,,---,0.00,983.00,VWS V14.01,2013-04-23 16:44:00,
2013-04-23 12:45:00,66.1,45.3,30.12,West,261,2.0,6.0,47,0.00,,---,0.00,984.00,VWS V14.01,2013-04-23 16:45:00,
2013-04-23 12:46:00,65.6,44.8,30.12,West,259,0.0,3.0,47,0.00,,---,0.00,974.00,VWS V14.01,2013-04-23 16:46:00,
2013-04-23 12:47:00,65.9,45.7,30.12,WNW,292,3.0,6.0,48,0.00,,---,0.00,986.00,VWS V14.01,2013-04-23 16:47:00,
2013-04-23 12:51:00,66.0,45.8,30.12,WSW,242,1.0,3.0,48,0.00,,---,0.00,981.00,VWS V14.01,2013-04-23 16:51:00,
2013-04-23 12:53:00,65.8,45.6,30.11,NE,39,2.0,3.0,48,0.00,,---,0.00,990.00,VWS V14.01,2013-04-23 16:53:00,
2013-04-23 12:54:00,65.9,46.8,30.11,NE,44,0.0,3.0,50,0.00,,---,0.00,991.00,VWS V14.01,2013-04-23 16:54:00,
2013-04-23 12:55:00,65.9,46.2,30.11,NE,44,2.0,3.0,49,0.00,,---,0.00,995.00,VWS V14.01,2013-04-23 16:55:00,
2013-04-23 12:56:00,65.9,45.7,30.12,West,272,3.0,6.0,48,0.00,,---,0.00,986.00,VWS V14.01,2013-04-23 16:56:00,
2013-04-23 12:57:00,66.1,46.9,30.11,NE,44,0.0,3.0,50,0.00,,---,0.00,995.00,VWS V14.01,2013-04-23 16:57:00,
2013-04-23 12:58:00,66.3,46.0,30.11,NE,44,0.0,3.0,48,0.00,,---,0.00,995.00,VWS V14.01,2013-04-23 16:58:00,
2013-04-23 12:59:00,66.4,47.7,30.11,NE,44,0.0,3.0,51,0.00,,---,0.00,997.00,VWS V14.01,2013-04-23 16:59:00,
2013-04-23 13:00:00,66.6,45.8,30.10,NE,44,1.0,1.0,47,0.00,,---,0.00,998.00,VWS V14.01,2013-04-23 17:00:00,
2013-04-23 13:01:00,65.7,44.4,30.11,South,188,0.0,3.0,46,0.00,,---,0.00,991.00,VWS V14.01,2013-04-23 17:01:00,
2013-04-23 13:07:00,66.2,46.0,30.11,NE,44,0.0,3.0,48,0.00,,---,0.00,995.00,VWS V14.01,2013-04-23 17:07:00,
2013-04-23 13:08:00,67.2,46.9,30.10,North,355,0.0,4.0,48,0.00,,---,0.00,1004.00,VWS V14.01,2013-04-23 17:08:00,
2013-04-23 13:09:00,67.3,45.8,30.10,North,355,0.0,4.0,46,0.00,,---,0.00,1005.00,VWS V14.01,2013-04-23 17:09:00,
2013-04-23 13:10:00,67.4,47.0,30.10,North,360,0.0,2.0,48,0.00,,---,0.00,1002.00,VWS V14.01,2013-04-23 17:10:00,
2013-04-23 13:11:00,67.5,45.4,30.09,North,360,1.0,2.0,45,0.00,,---,0.00,1007.00,VWS V14.01,2013-04-23 17:11:00,
2013-04-23 13:12:00,66.9,45.5,30.10,North,355,0.0,2.0,46,0.00,,---,0.00,998.00,VWS V14.01,2013-04-23 17:12:00,
2013-04-23 13:13:00,67.6,45.5,30.09,North,360,0.0,2.0,45,0.00,,---,0.00,1007.00,VWS V14.01,2013-04-23 17:13:00,
2013-04-23 13:14:00,67.6,46.7,30.09,NNW,340,0.0,5.0,47,0.00,,---,0.00,1007.00,VWS V14.01,2013-04-23 17:14:00,
2013-04-23 13:15:00,67.6,45.5,30.10,NNW,340,1.0,5.0,45,0.00,,---,0.00,1007.00,VWS V14.01,2013-04-23 17:15:00,
2013-04-23 13:17:00,67.2,46.9,30.10,North,355,0.0,4.0,48,0.00,,---,0.00,1005.00,VWS V14.01,2013-04-23 17:17:00,
2013-04-23 13:21:00,67.4,46.5,30.09,WNW,299,0.0,2.0,47,0.00,,---,0.00,1007.00,VWS V14.01,2013-04-23 17:21:00,
2013-04-23 13:22:00,67.6,45.5,30.09,North,360,0.0,2.0,45,0.00,,---,0.00,1005.00,VWS V14.01,2013-04-23 17:22:00,
2013-04-23 13:23:00,67.6,48.3,30.09,North,5,2.0,6.0,50,0.00,,---,0.00,1011.00,VWS V14.01,2013-04-23 17:23:00,
2013-04-23 13:24:00,67.7,46.8,30.09,NNW,342,2.0,6.0,47,0.00,,---,0.00,1009.00,VWS V14.01,2013-04-23 17:24:00,
2013-04-23 13:25:00,67.8,47.4,30.09,NNW,342,0.0,6.0,48,0.00,,---,0.00,1011.00,VWS V14.01,2013-04-23 17:25:00,
2013-04-23 13:26:00,67.9,47.0,30.09,NNW,342,0.0,6.0,47,0.00,,---,0.00,1011.00,VWS V14.01,2013-04-23 17:26:00,
2013-04-23 13:27:00,67.4,45.9,30.09,SW,229,0.0,5.0,46,0.00,,---,0.00,1005.00,VWS V14.01,2013-04-23 17:27:00,
2013-04-23 13:28:00,68.0,48.2,30.08,NNW,346,3.0,6.0,49,0.00,,---,0.00,1013.00,VWS V14.01,2013-04-23 17:28:00,
2013-04-23 13:29:00,68.1,46.0,30.08,NNW,346,0.0,6.0,45,0.00,,---,0.00,1013.00,VWS V14.01,2013-04-23 17:29:00,
2013-04-23 13:32:00,67.6,48.3,30.09,North,9,2.0,6.0,50,0.00,,---,0.00,1011.00,VWS V14.01,2013-04-23 17:32:00,
2013-04-23 13:36:00,68.1,46.0,30.08,West,259,0.0,3.0,45,0.00,,---,0.00,1009.00,VWS V14.01,2013-04-23 17:36:00,
2013-04-23 13:37:00,68.0,46.5,30.08,NNW,342,0.0,6.0,46,0.00,,---,0.00,1013.00,VWS V14.01,2013-04-23 17:37:00,
2013-04-23 13:38:00,68.3,46.7,30.08,WNW,296,2.0,3.0,46,0.00,,---,0.00,1013.00,VWS V14.01,2013-04-23 17:38:00,
2013-04-23 13:39:00,68.3,45.6,30.08,WNW,298,2.0,3.0,44,0.00,,---,0.00,1014.00,VWS V14.01,2013-04-23 17:39:00,
2013-04-23 13:40:00,68.3,46.2,30.08,WNW,294,1.0,3.0,45,0.00,,---,0.00,1011.00,VWS V14.01,2013-04-23 17:40:00,
2013-04-23 13:41:00,68.3,45.6,30.07,NW,312,2.0,4.0,44,0.00,,---,0.00,1013.00,VWS V14.01,2013-04-23 17:41:00,
2013-04-23 13:42:00,68.1,44.8,30.08,WSW,257,1.0,3.0,43,0.00,,---,0.00,1011.00,VWS V14.01,2013-04-23 17:42:00,
2013-04-23 13:48:00,68.3,46.2,30.08,WNW,299,1.0,3.0,45,0.00,,---,0.00,1013.00,VWS V14.01,2013-04-23 17:48:00,
2013-04-23 13:50:00,67.6,47.2,30.07,NE,40,0.0,2.0,48,0.00,,---,0.00,1009.00,VWS V14.01,2013-04-23 17:50:00,
2013-04-23 13:51:00,67.8,48.5,30.07,NE,40,1.0,2.0,50,0.00,,---,0.00,1004.00,VWS V14.01,2013-04-23 17:51:00,
2013-04-23 13:52:00,67.9,49.1,30.07,NE,38,0.0,2.0,51,0.00,,---,0.00,1007.00,VWS V14.01,2013-04-23 17:52:00,
2013-04-23 13:53:00,68.1,44.2,30.07,NW,315,3.0,6.0,42,0.00,,---,0.00,1009.00,VWS V14.01,2013-04-23 17:53:00,
2013-04-23 13:54:00,68.3,50.0,30.07,NE,46,0.0,3.0,52,0.00,,---,0.00,1007.00,VWS V14.01,2013-04-23 17:54:00,
2013-04-23 13:55:00,68.5,49.2,30.08,NE,46,0.0,3.0,50,0.00,,---,0.00,1007.00,VWS V14.01,2013-04-23 17:55:00,
2013-04-23 13:56:00,68.6,48.7,30.07,NE,46,0.0,3.0,49,0.00,,---,0.00,1005.00,VWS V14.01,2013-04-23 17:56:00,
2013-04-23 13:57:00,68.8,47.8,30.07,NE,46,0.0,3.0,47,0.00,,---,0.00,1007.00,VWS V14.01,2013-04-23 17:57:00,
2013-04-23 13:58:00,67.6,44.3,30.07,WNW,292,0.0,6.0,43,0.00,,---,0.00,1011.00,VWS V14.01,2013-04-23 17:58:00,
2013-04-23 13:59:00,69.1,48.0,30.07,NE,52,2.0,3.0,47,0.00,,---,0.00,1005.00,VWS V14.01,2013-04-23 17:59:00,
2013-04-23 14:01:00,69.3,47.1,30.07,NE,53,0.0,1.0,45,0.00,,---,0.00,1004.00,VWS V14.01,2013-04-23 18:01:00,
2013-04-23 14:02:00,69.4,47.2,30.07,NE,49,0.0,2.0,45,0.00,,---,0.00,1009.00,VWS V14.01,2013-04-23 18:02:00,
2013-04-23 14:03:00,68.2,49.9,30.07,NE,46,0.0,3.0,52,0.00,,---,0.00,1009.00,VWS V14.01,2013-04-23 18:03:00,
2013-04-23 14:04:00,69.6,47.3,30.08,NE,49,0.0,2.0,45,0.00,,---,0.00,1005.00,VWS V14.01,2013-04-23 18:04:00,
2013-04-23 14:05:00,69.8,48.7,30.07,NE,49,0.0,2.0,47,0.00,,---,0.00,1005.00,VWS V14.01,2013-04-23 18:05:00,
2013-04-23 14:06:00,69.9,47.6,30.07,NE,49,1.0,2.0,45,0.00,,---,0.00,1004.00,VWS V14.01,2013-04-23 18:06:00,
2013-04-23 14:07:00,70.1,48.4,30.07,NE,49,0.0,2.0,46,0.00,,---,0.00,1000.00,VWS V14.01,2013-04-23 18:07:00,
2013-04-23 14:08:00,69.0,48.0,30.07,NE,46,0.0,3.0,47,0.00,,---,0.00,1004.00,VWS V14.01,2013-04-23 18:08:00,
2013-04-23 14:13:00,69.6,47.3,30.08,NE,49,0.0,2.0,45,0.00,,---,0.00,1005.00,VWS V14.01,2013-04-23 18:13:00,
2013-04-23 14:15:00,70.3,47.4,30.07,West,271,4.0,7.0,44,0.00,,---,0.00,1004.00,VWS V14.01,2013-04-23 18:15:00,
2013-04-23 14:16:00,70.2,47.9,30.07,WSW,246,5.0,7.0,45,0.00,,---,0.00,1004.00,VWS V14.01,2013-04-23 18:16:00,
2013-04-23 14:17:00,70.1,46.6,30.07,WSW,238,4.0,7.0,43,0.00,,---,0.00,1002.00,VWS V14.01,2013-04-23 18:17:00,
2013-04-23 14:18:00,70.2,46.1,30.07,NE,46,0.0,2.0,42,0.00,,---,0.00,1002.00,VWS V14.01,2013-04-23 18:18:00,
2013-04-23 14:19:00,69.9,46.4,30.07,WNW,289,1.0,7.0,43,0.00,,---,0.00,1000.00,VWS V14.01,2013-04-23 18:19:00,
2013-04-23 14:20:00,69.9,47.6,30.07,WNW,290,0.0,1.0,45,0.00,,---,0.00,1000.00,VWS V14.01,2013-04-23 18:20:00,
2013-04-23 14:21:00,69.9,46.4,30.07,WNW,288,1.0,2.0,43,0.00,,---,0.00,998.00,VWS V14.01,2013-04-23 18:21:00,
2013-04-23 14:22:00,70.0,46.5,30.07,WSW,241,1.0,4.0,43,0.00,,---,0.00,1000.00,VWS V14.01,2013-04-23 18:22:00,
2013-04-23 14:23:00,70.0,45.9,30.07,WSW,252,1.0,7.0,42,0.00,,---,0.00,1002.00,VWS V14.01,2013-04-23 18:23:00,
2013-04-23 14:24:00,70.3,48.0,30.07,WNW,285,6.0,7.0,45,0.00,,---,0.00,1004.00,VWS V14.01,2013-04-23 18:24:00,
2013-04-23 14:29:00,69.9,48.2,30.07,WNW,289,1.0,7.0,46,0.00,,---,0.00,1000.00,VWS V14.01,2013-04-23 18:29:00,
2013-04-23 14:30:00,69.8,45.1,30.07,WNW,287,0.0,1.0,41,0.00,,---,0.00,998.00,VWS V14.01,2013-04-23 18:30:00,
2013-04-23 14:31:00,69.7,45.0,30.07,WNW,287,0.0,1.0,41,0.00,,---,0.00,991.00,VWS V14.01,2013-04-23 18:31:00,
2013-04-23 14:32:00,69.7,47.4,30.06,WSW,241,4.0,6.0,45,0.00,,---,0.00,988.00,VWS V14.01,2013-04-23 18:32:00,
2013-04-23 14:33:00,69.7,46.8,30.06,WNW,283,3.0,6.0,44,0.00,,---,0.00,977.00,VWS V14.01,2013-04-23 18:33:00,
2013-04-23 14:34:00,69.9,45.8,30.07,West,268,1.0,7.0,42,0.00,,---,0.00,1004.00,VWS V14.01,2013-04-23 18:34:00,
2013-04-23 14:35:00,69.7,46.8,30.06,WSW,245,2.0,6.0,44,0.00,,---,0.00,974.00,VWS V14.01,2013-04-23 18:35:00,
2013-04-23 14:36:00,69.7,46.8,30.06,WSW,253,0.0,6.0,44,0.00,,---,0.00,970.00,VWS V14.01,2013-04-23 18:36:00,
2013-04-23 14:37:00,69.6,44.9,30.06,WNW,288,1.0,6.0,41,0.00,,---,0.00,967.00,VWS V14.01,2013-04-23 18:37:00,
2013-04-23 14:39:00,69.8,45.1,30.07,WNW,287,0.0,1.0,41,0.00,,---,0.00,990.00,VWS V14.01,2013-04-23 18:39:00,
2013-04-23 14:41:00,69.3,45.2,30.06,NE,34,2.0,4.0,42,0.00,,---,0.00,947.00,VWS V14.01,2013-04-23 18:41:00,
2013-04-23 14:42:00,69.3,45.9,30.05,NE,34,0.0,4.0,43,0.00,,---,0.00,947.00,VWS V14.01,2013-04-23 18:42:00,
2013-04-23 14:43:00,69.3,46.5,30.06,ENE,62,0.0,5.0,44,0.00,,---,0.00,967.00,VWS V14.01,2013-04-23 18:43:00,
2013-04-23 14:44:00,69.7,46.8,30.06,WSW,241,3.0,6.0,44,0.00,,---,0.00,974.00,VWS V14.01,2013-04-23 18:44:00,
2013-04-23 14:46:00,69.4,46.0,30.06,ENE,62,0.0,5.0,43,0.00,,---,0.00,972.00,VWS V14.01,2013-04-23 18:46:00,
2013-04-23 14:49:00,69.4,45.3,30.06,NE,40,3.0,3.0,42,0.00,,---,0.00,951.00,VWS V14.01,2013-04-23 18:49:00,
2013-04-23 14:52:00,69.8,44.4,30.06,NE,46,2.0,2.0,40,0.00,,---,0.00,882.00,VWS V14.01,2013-04-23 18:52:00,
2013-04-23 14:53:00,69.9,45.2,30.06,WNW,299,1.0,5.0,41,0.00,,---,0.00,909.00,VWS V14.01,2013-04-23 18:53:00,
2013-04-23 14:54:00,69.3,44.6,30.06,ENE,62,0.0,5.0,41,0.00,,---,0.00,916.00,VWS V14.01,2013-04-23 18:54:00,
2013-04-23 14:55:00,70.0,44.6,30.06,WSW,240,0.0,5.0,40,0.00,,---,0.00,942.00,VWS V14.01,2013-04-23 18:55:00,
2013-04-23 14:56:00,70.1,45.3,30.05,WSW,240,2.0,5.0,41,0.00,,---,0.00,946.00,VWS V14.01,2013-04-23 18:56:00,
2013-04-23 14:57:00,70.2,44.1,30.05,WSW,250,2.0,5.0,39,0.00,,---,0.00,958.00,VWS V14.01,2013-04-23 18:57:00,
2013-04-23 14:58:00,70.2,42.7,30.05,WSW,250,0.0,5.0,37,0.00,,---,0.00,949.00,VWS V14.01,2013-04-23 18:58:00,
2013-04-23 14:59:00,69.6,46.1,30.06,NE,46,0.0,1.0,43,0.00,,---,0.00,895.00,VWS V14.01,2013-04-23 18:59:00,
2013-04-23 15:00:00,70.3,47.4,30.05,NE,39,5.0,5.0,44,0.00,,---,0.00,933.00,VWS V14.01,2013-04-23 19:00:00,
2013-04-23 15:05:00,70.1,44.7,30.05,WSW,240,0.0,5.0,40,0.00,,---,0.00,942.00,VWS V14.01,2013-04-23 19:05:00,
2013-04-23 15:06:00,70.6,47.7,30.05,NNE,33,0.0,5.0,44,0.00,,---,0.00,830.00,VWS V14.01,2013-04-23 19:06:00,
2013-04-23 15:07:00,70.7,48.9,30.05,NNE,33,0.0,5.0,46,0.00,,---,0.00,840.00,VWS V14.01,2013-04-23 19:07:00,
2013-04-23 15:08:00,70.9,47.3,30.05,NNE,33,0.0,5.0,43,0.00,,---,0.00,798.00,VWS V14.01,2013-04-23 19:08:00,
2013-04-23 15:09:00,71.0,48.0,30.05,NNE,33,0.0,5.0,44,0.00,,---,0.00,888.00,VWS V14.01,2013-04-23 19:09:00,
2013-04-23 15:10:00,70.3,47.4,30.05,NNE,24,3.0,5.0,44,0.00,,---,0.00,933.00,VWS V14.01,2013-04-23 19:10:00,
2013-04-23 15:11:00,71.1,46.9,30.04,NNE,24,2.0,6.0,42,0.00,,---,0.00,898.00,VWS V14.01,2013-04-23 19:11:00,
2013-04-23 15:12:00,71.1,46.2,30.04,ENE,70,0.0,6.0,41,0.00,,---,0.00,940.00,VWS V14.01,2013-04-23 19:12:00,
2013-04-23 15:13:00,71.0,46.1,30.05,NNE,25,4.0,6.0,41,0.00,,---,0.00,944.00,VWS V14.01,2013-04-23 19:13:00,
2013-04-23 15:15:00,70.6,47.7,30.05,NNE,33,0.0,5.0,44,0.00,,---,0.00,882.00,VWS V14.01,2013-04-23 19:15:00,
2013-04-23 15:20:00,71.2,47.0,30.04,NNE,15,3.0,6.0,42,0.00,,---,0.00,863.00,VWS V14.01,2013-04-23 19:20:00,
2013-04-23 15:21:00,70.6,48.8,30.03,NNE,17,4.0,4.0,46,0.00,,---,0.00,875.00,VWS V14.01,2013-04-23 19:21:00,
2013-04-23 15:22:00,70.6,46.4,30.03,NE,49,1.0,6.0,42,0.00,,---,0.00,875.00,VWS V14.01,2013-04-23 19:22:00,
2013-04-23 15:23:00,70.7,45.9,30.04,NNE,32,3.0,6.0,41,0.00,,---,0.00,898.00,VWS V14.01,2013-04-23 19:23:00,
2013-04-23 15:24:00,70.7,45.2,30.03,North,5,6.0,6.0,40,0.00,,---,0.00,888.00,VWS V14.01,2013-04-23 19:24:00,
2013-04-23 15:25:00,70.6,42.4,30.04,NW,325,3.0,6.0,36,0.00,,---,0.00,940.00,VWS V14.01,2013-04-23 19:25:00,
2013-04-23 15:30:00,70.6,48.8,30.03,NNE,20,4.0,4.0,46,0.00,,---,0.00,881.00,VWS V14.01,2013-04-23 19:30:00,
2013-04-23 15:31:00,71.0,44.8,30.03,NNE,32,0.0,6.0,39,0.00,,---,0.00,861.00,VWS V14.01,2013-04-23 19:31:00,
2013-04-23 15:32:00,71.1,46.2,30.03,East,81,2.0,6.0,41,0.00,,---,0.00,554.00,VWS V14.01,2013-04-23 19:32:00,
2013-04-23 15:33:00,71.1,43.5,30.03,East,81,0.0,6.0,37,0.00,,---,0.00,462.00,VWS V14.01,2013-04-23 19:33:00,
2013-04-23 15:34:00,71.2,42.9,30.03,East,81,0.0,6.0,36,0.00,,---,0.00,492.00,VWS V14.01,2013-04-23 19:34:00,
2013-04-23 15:35:00,70.6,44.5,30.03,NE,34,0.0,6.0,39,0.00,,---,0.00,875.00,VWS V14.01,2013-04-23 19:35:00,
2013-04-23 15:36:00,71.2,46.3,30.03,NE,53,3.0,6.0,41,0.00,,---,0.00,578.00,VWS V14.01,2013-04-23 19:36:00,
2013-04-23 15:37:00,71.2,46.3,30.03,ENE,66,0.0,6.0,41,0.00,,---,0.00,578.00,VWS V14.01,2013-04-23 19:37:00,
2013-04-23 15:38:00,71.3,48.9,30.03,ENE,66,0.0,6.0,45,0.00,,---,0.00,810.00,VWS V14.01,2013-04-23 19:38:00,
2013-04-23 15:39:00,71.3,47.7,30.03,ENE,66,0.0,6.0,43,0.00,,---,0.00,793.00,VWS V14.01,2013-04-23 19:39:00,
2013-04-23 15:41:00,71.0,44.8,30.03,NNE,32,0.0,6.0,39,0.00,,---,0.00,554.00,VWS V14.01,2013-04-23 19:41:00,
2013-04-23 15:45:00,71.7,45.5,30.03,ENE,66,1.0,2.0,39,0.00,,---,0.00,831.00,VWS V14.01,2013-04-23 19:45:00,
2013-04-23 15:46:00,71.2,46.3,30.03,ENE,68,3.0,6.0,41,0.00,,---,0.00,578.00,VWS V14.01,2013-04-23 19:46:00,
2013-04-23 15:47:00,71.8,44.2,30.03,West,271,0.0,3.0,37,0.00,,---,0.00,828.00,VWS V14.01,2013-04-23 19:47:00,
2013-04-23 15:49:00,71.9,46.3,30.03,West,271,0.0,3.0,40,0.00,,---,0.00,807.00,VWS V14.01,2013-04-23 19:49:00,
2013-04-23 15:50:00,71.9,44.2,30.03,West,271,0.0,1.0,37,0.00,,---,0.00,835.00,VWS V14.01,2013-04-23 19:50:00,
2013-04-23 15:51:00,71.4,45.2,30.03,ENE,66,0.0,1.0,39,0.00,,---,0.00,830.00,VWS V14.01,2013-04-23 19:51:00,
2013-04-23 15:56:00,71.8,46.2,30.03,West,271,0.0,3.0,40,0.00,,---,0.00,828.00,VWS V14.01,2013-04-23 19:56:00,
2013-04-23 15:57:00,72.5,49.4,30.02,NE,43,0.0,4.0,44,0.00,,---,0.00,728.00,VWS V14.01,2013-04-23 19:57:00,
2013-04-23 15:58:00,72.5,49.4,30.02,NE,43,0.0,4.0,44,0.00,,---,0.00,737.00,VWS V14.01,2013-04-23 19:58:00,
2013-04-23 15:59:00,72.6,48.2,30.02,NE,43,0.0,4.0,42,0.00,,---,0.00,705.00,VWS V14.01,2013-04-23 19:59:00,
2013-04-23 16:00:00,72.7,47.0,30.02,NE,43,1.0,1.0,40,0.00,,---,0.00,708.00,VWS V14.01,2013-04-23 20:00:00,
2013-04-23 16:01:00,72.1,47.1,30.02,NE,43,0.0,3.0,41,0.00,,---,0.00,835.00,VWS V14.01,2013-04-23 20:01:00,
2013-04-23 16:02:00,72.9,46.5,30.02,NE,42,0.0,1.0,39,0.00,,---,0.00,791.00,VWS V14.01,2013-04-23 20:02:00,
2013-04-23 16:03:00,73.0,45.9,30.02,NE,42,1.0,1.0,38,0.00,,---,0.00,812.00,VWS V14.01,2013-04-23 20:03:00,
2013-04-23 16:06:00,72.4,49.3,30.02,NE,43,0.0,4.0,44,0.00,,---,0.00,742.00,VWS V14.01,2013-04-23 20:06:00,
2013-04-23 16:11:00,72.8,46.4,30.02,NE,42,1.0,1.0,39,0.00,,---,0.00,765.00,VWS V14.01,2013-04-23 20:11:00,
2013-04-23 16:12:00,73.2,46.8,30.01,NE,49,2.0,3.0,39,0.00,,---,0.00,807.00,VWS V14.01,2013-04-23 20:12:00,
2013-04-23 16:13:00,73.1,42.3,30.01,NE,35,2.0,5.0,33,0.00,,---,0.00,807.00,VWS V14.01,2013-04-23 20:13:00,
2013-04-23 16:14:00,73.0,43.8,30.01,NE,49,0.0,5.0,35,0.00,,---,0.00,802.00,VWS V14.01,2013-04-23 20:14:00,
2013-04-23 16:15:00,72.9,43.7,30.01,NE,50,0.0,5.0,35,0.00,,---,0.00,796.00,VWS V14.01,2013-04-23 20:15:00,
2013-04-23 16:16:00,73.1,51.1,30.01,NE,38,0.0,2.0,46,0.00,,---,0.00,828.00,VWS V14.01,2013-04-23 20:16:00,
2013-04-23 16:17:00,72.9,45.8,30.01,NE,52,0.0,5.0,38,0.00,,---,0.00,775.00,VWS V14.01,2013-04-23 20:17:00,
2013-04-23 16:18:00,73.0,44.5,30.01,NW,323,2.0,5.0,36,0.00,,---,0.00,763.00,VWS V14.01,2013-04-23 20:18:00,
2013-04-23 16:19:00,73.0,45.2,30.01,West,276,0.0,5.0,37,0.00,,---,0.00,747.00,VWS V14.01,2013-04-23 20:19:00,
2013-04-23 16:20:00,73.1,45.3,30.01,SW,232,3.0,3.0,37,0.00,,---,0.00,731.00,VWS V14.01,2013-04-23 20:20:00,
2013-04-23 16:21:00,73.1,45.3,30.01,West,265,0.0,3.0,37,0.00,,---,0.00,737.00,VWS V14.01,2013-04-23 20:21:00,
2013-04-23 16:22:00,73.2,42.4,30.01,North,350,4.0,5.0,33,0.00,,---,0.00,803.00,VWS V14.01,2013-04-23 20:22:00,
2013-04-23 16:27:00,72.9,45.8,30.01,NE,42,0.0,5.0,38,0.00,,---,0.00,775.00,VWS V14.01,2013-04-23 20:27:00,
2013-04-23 16:28:00,73.2,43.2,30.00,West,269,0.0,4.0,34,0.00,,---,0.00,640.00,VWS V14.01,2013-04-23 20:28:00,
2013-04-23 16:29:00,73.2,44.7,30.00,West,265,2.0,4.0,36,0.00,,---,0.00,638.00,VWS V14.01,2013-04-23 20:29:00,
2013-04-23 16:30:00,73.1,42.3,30.00,West,259,0.0,3.0,33,0.00,,---,0.00,624.00,VWS V14.01,2013-04-23 20:30:00,
2013-04-23 16:31:00,73.1,42.3,30.00,WSW,239,0.0,3.0,33,0.00,,---,0.00,631.00,VWS V14.01,2013-04-23 20:31:00,
2013-04-23 16:32:00,73.2,45.4,30.01,WSW,249,0.0,4.0,37,0.00,,---,0.00,728.00,VWS V14.01,2013-04-23 20:32:00,
2013-04-23 16:33:00,73.1,40.7,30.00,WSW,239,0.0,3.0,31,0.00,,---,0.00,603.00,VWS V14.01,2013-04-23 20:33:00,
2013-04-23 16:34:00,73.0,43.0,30.00,WSW,239,0.0,3.0,34,0.00,,---,0.00,606.00,VWS V14.01,2013-04-23 20:34:00,
2013-04-23 16:35:00,73.1,43.1,30.00,SSE,163,0.0,3.0,34,0.00,,---,0.00,584.00,VWS V14.01,2013-04-23 20:35:00,
2013-04-23 16:36:00,73.1,43.1,30.00,SE,138,0.0,3.0,34,0.00,,---,0.00,575.00,VWS V14.01,2013-04-23 20:36:00,
2013-04-23 16:37:00,73.2,43.2,30.00,West,269,0.0,4.0,34,0.00,,---,0.00,656.00,VWS V14.01,2013-04-23 20:37:00,
2013-04-23 16:42:00,73.1,40.7,30.00,WSW,239,2.0,3.0,31,0.00,,---,0.00,633.00,VWS V14.01,2013-04-23 20:42:00,
2013-04-23 16:43:00,73.3,43.3,30.00,SE,136,0.0,1.0,34,0.00,,---,0.00,554.00,VWS V14.01,2013-04-23 20:43:00,
2013-04-23 16:44:00,73.3,40.0,30.00,SE,136,0.0,1.0,30,0.00,,---,0.00,545.00,VWS V14.01,2013-04-23 20:44:00,
2013-04-23 16:45:00,73.3,40.0,30.00,SE,136,0.0,1.0,30,0.00,,---,0.00,538.00,VWS V14.01,2013-04-23 20:45:00,
2013-04-23 16:46:00,73.4,44.1,30.00,SE,136,0.0,1.0,35,0.00,,---,0.00,536.00,VWS V14.01,2013-04-23 20:46:00,
2013-04-23 16:47:00,73.1,43.1,30.00,SE,136,0.0,3.0,34,0.00,,---,0.00,573.00,VWS V14.01,2013-04-23 20:47:00,
2013-04-23 16:48:00,73.5,41.0,30.00,SE,136,0.0,1.0,31,0.00,,---,0.00,485.00,VWS V14.01,2013-04-23 20:48:00,
2013-04-23 16:49:00,73.5,40.2,29.99,SE,136,0.0,1.0,30,0.00,,---,0.00,459.00,VWS V14.01,2013-04-23 20:49:00,
2013-04-23 16:50:00,73.6,41.1,29.99,SE,136,1.0,1.0,31,0.00,,---,0.00,434.00,VWS V14.01,2013-04-23 20:50:00,
2013-04-23 16:52:00,73.3,43.3,30.00,SE,136,0.0,1.0,34,0.00,,---,0.00,554.00,VWS V14.01,2013-04-23 20:52:00,
2013-04-23 16:54:00,73.3,39.2,29.99,WSW,246,0.0,5.0,29,0.00,,---,0.00,411.00,VWS V14.01,2013-04-23 20:54:00,
2013-04-23 16:55:00,73.2,39.1,29.99,WSW,246,0.0,5.0,29,0.00,,---,0.00,420.00,VWS V14.01,2013-04-23 20:55:00,
2013-04-23 16:56:00,73.0,38.0,29.99,WSW,246,0.0,5.0,28,0.00,,---,0.00,408.00,VWS V14.01,2013-04-23 20:56:00,
2013-04-23 16:57:00,73.5,41.0,30.00,SE,136,0.0,1.0,31,0.00,,---,0.00,536.00,VWS V14.01,2013-04-23 20:57:00,
2013-04-23 16:58:00,72.9,39.7,29.99,WSW,246,0.0,5.0,30,0.00,,---,0.00,380.00,VWS V14.01,2013-04-23 20:58:00,
2013-04-23 16:59:00,72.9,39.7,29.99,WSW,246,0.0,5.0,30,0.00,,---,0.00,371.00,VWS V14.01,2013-04-23 20:59:00,
2013-04-23 17:00:00,72.8,41.3,29.99,WSW,246,0.0,0.0,32,0.00,,---,0.00,345.00,VWS V14.01,2013-04-23 21:00:00,
2013-04-23 17:01:00,72.8,40.4,29.99,WSW,246,0.0,1.0,31,0.00,,---,0.00,341.00,VWS V14.01,2013-04-23 21:01:00,
2013-04-23 17:03:00,73.5,39.3,29.99,WSW,246,0.0,5.0,29,0.00,,---,0.00,417.00,VWS V14.01,2013-04-23 21:03:00,
2013-04-23 17:08:00,72.9,39.7,29.99,WSW,246,0.0,5.0,30,0.00,,---,0.00,371.00,VWS V14.01,2013-04-23 21:08:00,
2013-04-23 17:09:00,72.4,40.9,30.00,SW,236,0.0,5.0,32,0.00,,---,0.00,316.00,VWS V14.01,2013-04-23 21:09:00,
2013-04-23 17:10:00,72.2,37.3,30.00,WSW,238,2.0,2.0,28,0.00,,---,0.00,306.00,VWS V14.01,2013-04-23 21:10:00,
2013-04-23 17:11:00,72.1,37.2,30.00,SW,230,0.0,4.0,28,0.00,,---,0.00,301.00,VWS V14.01,2013-04-23 21:11:00,
2013-04-23 17:12:00,71.9,38.0,30.00,SW,230,0.0,4.0,29,0.00,,---,0.00,295.00,VWS V14.01,2013-04-23 21:12:00,
2013-04-23 17:13:00,72.8,39.6,29.99,WSW,246,0.0,1.0,30,0.00,,---,0.00,322.00,VWS V14.01,2013-04-23 21:13:00,
2013-04-23 17:14:00,71.7,38.6,30.00,SW,230,0.0,4.0,30,0.00,,---,0.00,278.00,VWS V14.01,2013-04-23 21:14:00,
2013-04-23 17:16:00,71.4,40.8,30.00,SW,231,1.0,5.0,33,0.00,,---,0.00,269.00,VWS V14.01,2013-04-23 21:16:00,
2013-04-23 17:18:00,72.4,40.9,30.00,SW,236,2.0,5.0,32,0.00,,---,0.00,323.00,VWS V14.01,2013-04-23 21:18:00,
2013-04-23 17:22:00,70.9,40.4,30.00,SW,232,0.0,3.0,33,0.00,,---,0.00,251.00,VWS V14.01,2013-04-23 21:22:00,
2013-04-23 17:23:00,71.8,38.7,30.00,SW,230,2.0,4.0,30,0.00,,---,0.00,285.00,VWS V14.01,2013-04-23 21:23:00,
2013-04-23 17:24:00,70.8,41.1,30.00,SW,232,1.0,3.0,34,0.00,,---,0.00,253.00,VWS V14.01,2013-04-23 21:24:00,
2013-04-23 17:25:00,70.7,42.5,30.00,SW,232,0.0,3.0,36,0.00,,---,0.00,253.00,VWS V14.01,2013-04-23 21:25:00,
2013-04-23 17:26:00,70.7,42.5,30.00,SW,232,0.0,3.0,36,0.00,,---,0.00,260.00,VWS V14.01,2013-04-23 21:26:00,
2013-04-23 17:27:00,70.7,43.9,30.00,SW,232,0.0,3.0,38,0.00,,---,0.00,272.00,VWS V14.01,2013-04-23 21:27:00,
2013-04-23 17:28:00,71.1,42.1,30.00,SW,232,0.0,5.0,35,0.00,,---,0.00,251.00,VWS V14.01,2013-04-23 21:28:00,
2013-04-23 17:29:00,70.7,42.5,30.00,SW,232,0.0,3.0,36,0.00,,---,0.00,290.00,VWS V14.01,2013-04-23 21:29:00,
2013-04-23 17:30:00,70.7,42.5,30.00,SW,232,0.0,0.0,36,0.00,,---,0.00,283.00,VWS V14.01,2013-04-23 21:30:00,
2013-04-23 17:33:00,70.8,41.1,30.00,SW,232,3.0,3.0,34,0.00,,---,0.00,251.00,VWS V14.01,2013-04-23 21:33:00,
2013-04-23 17:36:00,70.8,41.1,30.00,SW,231,1.0,3.0,34,0.00,,---,0.00,251.00,VWS V14.01,2013-04-23 21:36:00,
2013-04-23 17:37:00,70.8,41.1,30.00,SW,230,0.0,3.0,34,0.00,,---,0.00,237.00,VWS V14.01,2013-04-23 21:37:00,
2013-04-23 17:38:00,70.7,42.5,30.00,SW,232,0.0,3.0,36,0.00,,---,0.00,288.00,VWS V14.01,2013-04-23 21:38:00,
2013-04-23 17:41:00,70.7,44.5,30.00,WSW,241,0.0,1.0,39,0.00,,---,0.00,197.00,VWS V14.01,2013-04-23 21:41:00,
2013-04-23 17:42:00,70.6,43.1,30.00,SW,228,1.0,3.0,37,0.00,,---,0.00,197.00,VWS V14.01,2013-04-23 21:42:00,
2013-04-23 17:43:00,70.8,40.3,30.00,SW,232,0.0,3.0,33,0.00,,---,0.00,308.00,VWS V14.01,2013-04-23 21:43:00,
2013-04-23 17:44:00,70.6,44.5,30.00,SW,232,2.0,3.0,39,0.00,,---,0.00,190.00,VWS V14.01,2013-04-23 21:44:00,
2013-04-23 17:49:00,70.7,41.7,30.00,WSW,239,0.0,1.0,35,0.00,,---,0.00,206.00,VWS V14.01,2013-04-23 21:49:00,
2013-04-23 17:50:00,70.3,46.2,30.00,NE,43,0.0,0.0,42,0.00,,---,0.00,156.00,VWS V14.01,2013-04-23 21:50:00,
2013-04-23 17:51:00,70.2,47.9,30.00,NE,43,0.0,0.0,45,0.00,,---,0.00,149.00,VWS V14.01,2013-04-23 21:51:00,
2013-04-23 17:52:00,70.1,47.8,30.01,ESE,107,3.0,4.0,45,0.00,,---,0.00,144.00,VWS V14.01,2013-04-23 21:52:00,
2013-04-23 17:53:00,70.0,47.1,30.00,ESE,107,0.0,4.0,44,0.00,,---,0.00,135.00,VWS V14.01,2013-04-23 21:53:00,
2013-04-23 17:54:00,69.9,47.6,30.00,ESE,107,0.0,4.0,45,0.00,,---,0.00,134.00,VWS V14.01,2013-04-23 21:54:00,
2013-04-23 17:55:00,70.5,44.4,30.00,SW,232,0.0,3.0,39,0.00,,---,0.00,183.00,VWS V14.01,2013-04-23 21:55:00,
2013-04-23 17:56:00,69.8,48.1,30.00,ESE,107,0.0,4.0,46,0.00,,---,0.00,130.00,VWS V14.01,2013-04-23 21:56:00,
2013-04-23 17:57:00,69.8,47.5,30.00,ESE,107,0.0,4.0,45,0.00,,---,0.00,130.00,VWS V14.01,2013-04-23 21:57:00,
2013-04-23 17:59:00,69.7,48.6,30.01,NE,40,0.0,4.0,47,0.00,,---,0.00,146.00,VWS V14.01,2013-04-23 21:59:00,
2013-04-23 18:00:00,70.2,47.9,30.00,NE,43,0.0,0.0,45,0.00,,---,0.00,156.00,VWS V14.01,2013-04-23 22:00:00,
2013-04-23 18:04:00,69.3,48.2,30.01,NE,40,0.0,2.0,47,0.00,,---,0.00,186.00,VWS V14.01,2013-04-23 22:04:00,
2013-04-23 18:05:00,69.8,48.1,30.00,ESE,107,0.0,4.0,46,0.00,,---,0.00,132.00,VWS V14.01,2013-04-23 22:05:00,
2013-04-23 18:06:00,69.2,48.1,30.01,NE,41,0.0,3.0,47,0.00,,---,0.00,195.00,VWS V14.01,2013-04-23 22:06:00,
2013-04-23 18:07:00,69.2,47.6,30.01,NE,41,1.0,3.0,46,0.00,,---,0.00,188.00,VWS V14.01,2013-04-23 22:07:00,
2013-04-23 18:08:00,69.1,48.6,30.01,NE,41,1.0,3.0,48,0.00,,---,0.00,183.00,VWS V14.01,2013-04-23 22:08:00,
2013-04-23 18:09:00,69.0,49.1,30.01,NE,41,0.0,3.0,49,0.00,,---,0.00,174.00,VWS V14.01,2013-04-23 22:09:00,
2013-04-23 18:10:00,69.6,47.9,30.00,NE,41,1.0,1.0,46,0.00,,---,0.00,153.00,VWS V14.01,2013-04-23 22:10:00,
2013-04-23 18:12:00,68.9,48.4,30.01,NE,40,0.0,1.0,48,0.00,,---,0.00,146.00,VWS V14.01,2013-04-23 22:12:00,
2013-04-23 18:15:00,69.3,48.2,30.01,NE,40,0.0,2.0,47,0.00,,---,0.00,188.00,VWS V14.01,2013-04-23 22:15:00,
2013-04-23 18:18:00,68.7,47.7,30.01,NE,40,0.0,3.0,47,0.00,,---,0.00,105.00,VWS V14.01,2013-04-23 22:18:00,
2013-04-23 18:19:00,68.6,47.0,30.00,NE,40,0.0,3.0,46,0.00,,---,0.00,104.00,VWS V14.01,2013-04-23 22:19:00,
2013-04-23 18:20:00,69.0,48.0,30.01,NE,41,0.0,1.0,47,0.00,,---,0.00,160.00,VWS V14.01,2013-04-23 22:20:00,
2013-04-23 18:21:00,68.5,49.2,30.00,NE,41,0.0,0.0,50,0.00,,---,0.00,98.00,VWS V14.01,2013-04-23 22:21:00,
2013-04-23 18:22:00,68.5,47.5,30.00,NE,41,0.0,1.0,47,0.00,,---,0.00,97.00,VWS V14.01,2013-04-23 22:22:00,
2013-04-23 18:23:00,68.4,46.8,30.00,NE,41,0.0,1.0,46,0.00,,---,0.00,95.00,VWS V14.01,2013-04-23 22:23:00,
2013-04-23 18:24:00,68.4,47.4,30.00,NE,41,0.0,1.0,47,0.00,,---,0.00,95.00,VWS V14.01,2013-04-23 22:24:00,
2013-04-23 18:25:00,68.8,47.8,30.01,NE,40,0.0,2.0,47,0.00,,---,0.00,114.00,VWS V14.01,2013-04-23 22:25:00,
2013-04-23 18:30:00,68.6,48.2,30.00,NE,40,0.0,0.0,48,0.00,,---,0.00,98.00,VWS V14.01,2013-04-23 22:30:00,
2013-04-23 18:32:00,68.0,46.5,30.00,NE,41,0.0,0.0,46,0.00,,---,0.00,67.00,VWS V14.01,2013-04-23 22:32:00,
2013-04-23 18:33:00,67.9,45.8,30.00,NE,41,0.0,0.0,45,0.00,,---,0.00,63.00,VWS V14.01,2013-04-23 22:33:00,
2013-04-23 18:34:00,67.9,46.4,30.00,NE,41,0.0,0.0,46,0.00,,---,0.00,60.00,VWS V14.01,2013-04-23 22:34:00,
2013-04-23 18:35:00,68.3,47.9,30.00,NE,41,0.0,1.0,48,0.00,,---,0.00,91.00,VWS V14.01,2013-04-23 22:35:00,
2013-04-23 18:36:00,67.8,46.3,30.00,NE,41,0.0,1.0,46,0.00,,---,0.00,54.00,VWS V14.01,2013-04-23 22:36:00,
2013-04-23 18:37:00,67.8,47.4,30.00,NE,41,0.0,1.0,48,0.00,,---,0.00,53.00,VWS V14.01,2013-04-23 22:37:00,
2013-04-23 18:38:00,67.7,47.3,30.00,NE,41,0.0,1.0,48,0.00,,---,0.00,51.00,VWS V14.01,2013-04-23 22:38:00,
2013-04-23 18:41:00,68.0,47.0,30.00,NE,41,0.0,0.0,47,0.00,,---,0.00,70.00,VWS V14.01,2013-04-23 22:41:00,
2013-04-23 18:45:00,67.3,44.7,29.98,ENE,67,0.0,3.0,44,0.00,,---,0.00,53.00,VWS V14.01,2013-04-23 22:45:00,
2013-04-23 18:46:00,67.8,48.0,30.00,NE,41,0.0,1.0,49,0.00,,---,0.00,54.00,VWS V14.01,2013-04-23 22:46:00,
2013-04-23 18:47:00,67.3,45.2,29.98,ENE,67,0.0,3.0,45,0.00,,---,0.00,51.00,VWS V14.01,2013-04-23 22:47:00,
2013-04-23 18:48:00,67.2,45.2,29.98,ENE,67,0.0,3.0,45,0.00,,---,0.00,51.00,VWS V14.01,2013-04-23 22:48:00,
2013-04-23 18:49:00,67.2,46.9,29.98,ENE,67,0.0,3.0,48,0.00,,---,0.00,53.00,VWS V14.01,2013-04-23 22:49:00,
2013-04-23 18:50:00,67.2,48.0,29.98,ENE,67,0.0,0.0,50,0.00,,---,0.00,53.00,VWS V14.01,2013-04-23 22:50:00,
2013-04-23 18:51:00,67.5,46.0,29.99,NE,41,0.0,0.0,46,0.00,,---,0.00,53.00,VWS V14.01,2013-04-23 22:51:00,
2013-04-23 18:52:00,67.1,48.4,29.99,ENE,64,0.0,0.0,51,0.00,,---,0.00,58.00,VWS V14.01,2013-04-23 22:52:00,
2013-04-23 18:56:00,67.3,45.2,29.98,ENE,67,0.0,3.0,45,0.00,,---,0.00,53.00,VWS V14.01,2013-04-23 22:56:00,
2013-04-23 19:00:00,66.7,47.0,29.98,ENE,67,0.0,0.0,49,0.00,,---,0.00,74.00,VWS V14.01,2013-04-23 23:00:00,
2013-04-23 19:01:00,67.1,48.4,29.99,ENE,67,0.0,0.0,51,0.00,,---,0.00,54.00,VWS V14.01,2013-04-23 23:01:00,
2013-04-23 19:02:00,66.6,46.9,29.98,ENE,67,0.0,0.0,49,0.00,,---,0.00,77.00,VWS V14.01,2013-04-23 23:02:00,
2013-04-23 19:03:00,66.5,46.2,29.99,ENE,67,0.0,1.0,48,0.00,,---,0.00,81.00,VWS V14.01,2013-04-23 23:03:00,
2013-04-23 19:04:00,66.5,47.8,29.99,ENE,67,0.0,1.0,51,0.00,,---,0.00,79.00,VWS V14.01,2013-04-23 23:04:00,
2013-04-23 19:05:00,66.5,46.8,29.98,ENE,67,0.0,1.0,49,0.00,,---,0.00,77.00,VWS V14.01,2013-04-23 23:05:00,
2013-04-23 19:06:00,66.9,49.7,29.99,ENE,67,0.0,1.0,54,0.00,,---,0.00,65.00,VWS V14.01,2013-04-23 23:06:00,
2013-04-23 19:07:00,66.5,46.2,29.98,ENE,67,0.0,1.0,48,0.00,,---,0.00,74.00,VWS V14.01,2013-04-23 23:07:00,
2013-04-23 19:08:00,66.5,45.7,29.99,ENE,67,0.0,1.0,47,0.00,,---,0.00,70.00,VWS V14.01,2013-04-23 23:08:00,
2013-04-23 19:11:00,66.6,46.3,29.98,ENE,67,0.0,0.0,48,0.00,,---,0.00,77.00,VWS V14.01,2013-04-23 23:11:00,
2013-04-23 19:12:00,66.5,48.3,29.99,ENE,67,0.0,0.0,52,0.00,,---,0.00,60.00,VWS V14.01,2013-04-23 23:12:00,
2013-04-23 19:13:00,66.5,48.3,29.98,ENE,67,0.0,0.0,52,0.00,,---,0.00,56.00,VWS V14.01,2013-04-23 23:13:00,
2013-04-23 19:14:00,66.5,48.9,29.99,ENE,67,0.0,0.0,53,0.00,,---,0.00,51.00,VWS V14.01,2013-04-23 23:14:00,
2013-04-23 19:15:00,66.5,48.9,29.99,ENE,67,0.0,0.0,53,0.00,,---,0.00,46.00,VWS V14.01,2013-04-23 23:15:00,
2013-04-23 19:16:00,66.5,47.3,29.98,ENE,67,0.0,1.0,50,0.00,,---,0.00,74.00,VWS V14.01,2013-04-23 23:16:00,
2013-04-23 19:22:00,66.5,48.3,29.98,ENE,67,0.0,0.0,52,0.00,,---,0.00,60.00,VWS V14.01,2013-04-23 23:22:00,
2013-04-23 19:23:00,66.2,47.6,29.99,ENE,67,0.0,0.0,51,0.00,,---,0.00,53.00,VWS V14.01,2013-04-23 23:23:00,
2013-04-23 19:24:00,66.2,46.5,29.99,ENE,67,0.0,0.0,49,0.00,,---,0.00,51.00,VWS V14.01,2013-04-23 23:24:00,
2013-04-23 19:25:00,66.2,46.5,29.99,ENE,67,0.0,0.0,49,0.00,,---,0.00,49.00,VWS V14.01,2013-04-23 23:25:00,
2013-04-23 19:27:00,66.4,49.3,29.99,ENE,67,0.0,0.0,54,0.00,,---,0.00,46.00,VWS V14.01,2013-04-23 23:27:00,
2013-04-23 19:28:00,66.1,45.3,29.99,ENE,67,0.0,0.0,47,0.00,,---,0.00,39.00,VWS V14.01,2013-04-23 23:28:00,
2013-04-23 19:32:00,66.3,47.7,29.99,ENE,67,0.0,0.0,51,0.00,,---,0.00,53.00,VWS V14.01,2013-04-23 23:32:00,
2013-04-23 19:33:00,66.0,46.3,29.98,ENE,67,1.0,1.0,49,0.00,,---,0.00,26.00,VWS V14.01,2013-04-23 23:33:00,
2013-04-23 19:37:00,66.1,45.3,29.99,ENE,67,0.0,0.0,47,0.00,,---,0.00,40.00,VWS V14.01,2013-04-23 23:37:00,
2013-04-23 19:39:00,65.7,44.9,29.98,ENE,67,0.0,1.0,47,0.00,,---,0.00,16.00,VWS V14.01,2013-04-23 23:39:00,
2013-04-23 19:40:00,65.7,44.9,29.97,ENE,67,0.0,0.0,47,0.00,,---,0.00,14.00,VWS V14.01,2013-04-23 23:40:00,
2013-04-23 19:41:00,65.6,44.8,29.98,ENE,67,0.0,0.0,47,0.00,,---,0.00,12.00,VWS V14.01,2013-04-23 23:41:00,
2013-04-23 19:42:00,66.0,46.3,29.98,ENE,67,0.0,1.0,49,0.00,,---,0.00,28.00,VWS V14.01,2013-04-23 23:42:00,
2013-04-23 19:43:00,65.6,44.8,29.97,ENE,67,0.0,0.0,47,0.00,,---,0.00,11.00,VWS V14.01,2013-04-23 23:43:00,
2013-04-23 19:44:00,65.6,44.8,29.97,ENE,67,0.0,0.0,47,0.00,,---,0.00,9.00,VWS V14.01,2013-04-23 23:44:00,
2013-04-23 19:45:00,65.5,45.3,29.97,ENE,67,0.0,0.0,48,0.00,,---,0.00,9.00,VWS V14.01,2013-04-23 23:45:00,
2013-04-23 19:46:00,65.5,45.8,29.97,ENE,67,0.0,0.0,49,0.00,,---,0.00,9.00,VWS V14.01,2013-04-23 23:46:00,
2013-04-23 19:48:00,65.8,45.0,29.98,ENE,67,0.0,1.0,47,0.00,,---,0.00,19.00,VWS V14.01,2013-04-23 23:48:00,
2013-04-23 19:53:00,65.6,44.8,29.97,ENE,67,0.0,0.0,47,0.00,,---,0.00,11.00,VWS V14.01,2013-04-23 23:53:00,
2013-04-23 19:54:00,65.0,46.5,29.97,ENE,67,0.0,1.0,51,0.00,,---,0.00,5.00,VWS V14.01,2013-04-23 23:54:00,
2013-04-23 19:55:00,64.9,46.9,29.98,ENE,67,0.0,1.0,52,0.00,,---,0.00,5.00,VWS V14.01,2013-04-23 23:55:00,
2013-04-23 19:56:00,64.8,46.8,29.97,ENE,67,0.0,1.0,52,0.00,,---,0.00,5.00,VWS V14.01,2013-04-23 23:56:00,
2013-04-23 19:57:00,64.7,46.2,29.98,ENE,67,0.0,1.0,51,0.00,,---,0.00,5.00,VWS V14.01,2013-04-23 23:57:00,
2013-04-23 19:58:00,65.4,45.8,29.97,ENE,67,0.0,0.0,49,0.00,,---,0.00,7.00,VWS V14.01,2013-04-23 23:58:00,
2013-04-23 19:59:00,64.5,46.5,29.98,ENE,67,0.0,1.0,52,0.00,,---,0.00,0.00,VWS V14.01,2013-04-23 23:59:00,
2013-04-23 20:03:00,65.1,46.5,29.97,ENE,67,0.0,0.0,51,0.00,,---,0.00,5.00,VWS V14.01,2013-04-24 00:03:00,
2013-04-23 20:07:00,63.9,45.4,29.98,ENE,67,0.0,1.0,51,0.00,,---,0.00,0.00,VWS V14.01,2013-04-24 00:07:00,
2013-04-23 20:08:00,64.5,46.0,29.98,ENE,67,0.0,1.0,51,0.00,,---,0.00,0.00,VWS V14.01,2013-04-24 00:08:00,
2013-04-23 20:09:00,63.9,44.9,29.97,ENE,67,0.0,1.0,50,0.00,,---,0.00,0.00,VWS V14.01,2013-04-24 00:09:00,
2013-04-23 20:10:00,63.8,45.3,29.98,ENE,67,0.0,0.0,51,0.00,,---,0.00,0.00,VWS V14.01,2013-04-24 00:10:00,
2013-04-23 20:11:00,63.8,44.8,29.98,ENE,67,0.0,0.0,50,0.00,,---,0.00,0.00,VWS V14.01,2013-04-24 00:11:00,
2013-04-23 20:12:00,63.8,44.8,29.97,ENE,67,0.0,0.0,50,0.00,,---,0.00,0.00,VWS V14.01,2013-04-24 00:12:00,
2013-04-23 20:13:00,64.1,45.6,29.98,ENE,67,0.0,0.0,51,0.00,,---,0.00,0.00,VWS V14.01,2013-04-24 00:13:00,
2013-04-23 20:14:00,63.8,44.8,29.98,ENE,67,0.0,0.0,50,0.00,,---,0.00,0.00,VWS V14.01,2013-04-24 00:14:00,
2013-04-23 20:18:00,63.9,44.9,29.97,ENE,67,0.0,1.0,50,0.00,,---,0.00,0.00,VWS V14.01,2013-04-24 00:18:00,
2013-04-23 20:19:00,63.8,44.8,29.97,ENE,67,1.0,1.0,50,0.00,,---,0.00,0.00,VWS V14.01,2013-04-24 00:19:00,
2013-04-23 20:20:00,63.7,45.2,29.97,ENE,67,0.0,0.0,51,0.00,,---,0.00,0.00,VWS V14.01,2013-04-24 00:20:00,
2013-04-23 20:21:00,63.7,45.2,29.97,ENE,67,0.0,0.0,51,0.00,,---,0.00,0.00,VWS V14.01,2013-04-24 00:21:00,
2013-04-23 20:22:00,63.7,45.8,29.97,ENE,67,0.0,0.0,52,0.00,,---,0.00,0.00,VWS V14.01,2013-04-24 00:22:00,
2013-04-23 20:23:00,63.8,44.8,29.98,ENE,67,0.0,0.0,50,0.00,,---,0.00,0.00,VWS V14.01,2013-04-24 00:23:00,
2013-04-23 20:24:00,63.6,45.7,29.97,ENE,67,0.0,1.0,52,0.00,,---,0.00,0.00,VWS V14.01,2013-04-24 00:24:00,
2013-04-23 20:25:00,63.5,45.6,29.97,ENE,67,0.0,1.0,52,0.00,,---,0.00,0.00,VWS V14.01,2013-04-24 00:25:00,
2013-04-23 20:27:00,63.4,45.5,29.97,ENE,67,0.0,1.0,52,0.00,,---,0.00,0.00,VWS V14.01,2013-04-24 00:27:00,
2013-04-23 20:29:00,63.8,44.8,29.97,ENE,67,0.0,1.0,50,0.00,,---,0.00,0.00,VWS V14.01,2013-04-24 00:29:00,
2013-04-23 20:32:00,63.2,44.8,29.97,ENE,67,0.0,1.0,51,0.00,,---,0.00,0.00,VWS V14.01,2013-04-24 00:32:00,
2013-04-23 20:33:00,63.2,44.8,29.97,ENE,67,0.0,1.0,51,0.00,,---,0.00,0.00,VWS V14.01,2013-04-24 00:33:00,
2013-04-23 20:34:00,63.6,45.7,29.97,ENE,67,0.0,1.0,52,0.00,,---,0.00,0.00,VWS V14.01,2013-04-24 00:34:00,
2013-04-23 20:35:00,63.2,45.3,29.98,ENE,67,0.0,1.0,52,0.00,,---,0.00,0.00,VWS V14.01,2013-04-24 00:35:00,
2013-04-23 20:36:00,63.2,47.3,29.97,ENE,67,0.0,1.0,56,0.00,,---,0.00,0.00,VWS V14.01,2013-04-24 00:36:00,
2013-04-23 20:37:00,63.1,47.2,29.98,ENE,67,0.0,1.0,56,0.00,,---,0.00,0.00,VWS V14.01,2013-04-24 00:37:00,
2013-04-23 20:38:00,63.1,47.2,29.97,ENE,67,0.0,1.0,56,0.00,,---,0.00,0.00,VWS V14.01,2013-04-24 00:38:00,
2013-04-23 20:39:00,63.2,44.8,29.97,ENE,67,0.0,0.0,51,0.00,,---,0.00,0.00,VWS V14.01,2013-04-24 00:39:00,
2013-04-23 20:44:00,63.2,45.8,29.98,ENE,67,0.0,1.0,53,0.00,,---,0.00,0.00,VWS V14.01,2013-04-24 00:44:00,
2013-04-23 20:45:00,62.3,47.3,29.98,ENE,67,0.0,0.0,58,0.00,,---,0.00,0.00,VWS V14.01,2013-04-24 00:45:00,
2013-04-23 20:46:00,62.1,47.6,29.98,ENE,67,0.0,0.0,59,0.00,,---,0.00,0.00,VWS V14.01,2013-04-24 00:46:00,
2013-04-23 20:47:00,62.0,48.0,29.98,ENE,67,0.0,0.0,60,0.00,,---,0.00,0.00,VWS V14.01,2013-04-24 00:47:00,
2013-04-23 20:48:00,61.8,47.8,29.98,ENE,67,0.0,0.0,60,0.00,,---,0.00,0.00,VWS V14.01,2013-04-24 00:48:00,
2013-04-23 20:49:00,63.0,47.5,29.98,ENE,67,0.0,0.0,57,0.00,,---,0.00,0.00,VWS V14.01,2013-04-24 00:49:00,
2013-04-23 20:50:00,61.6,45.8,29.97,ENE,67,0.0,0.0,56,0.00,,---,0.00,0.00,VWS V14.01,2013-04-24 00:50:00,
2013-04-23 20:51:00,61.5,45.7,29.97,ENE,67,0.0,0.0,56,0.00,,---,0.00,0.00,VWS V14.01,2013-04-24 00:51:00,
2013-04-23 20:53:00,61.6,45.8,29.97,ENE,67,0.0,0.0,56,0.00,,---,0.00,0.00,VWS V14.01,2013-04-24 00:53:00,
2013-04-23 20:54:00,62.3,47.3,29.98,ENE,67,0.0,0.0,58,0.00,,---,0.00,0.00,VWS V14.01,2013-04-24 00:54:00,
2013-04-23 20:58:00,61.9,45.6,29.97,ENE,67,0.0,0.0,55,0.00,,---,0.00,0.00,VWS V14.01,2013-04-24 00:58:00,
2013-04-23 20:59:00,61.6,45.8,29.97,ENE,67,0.0,0.0,56,0.00,,---,0.00,0.00,VWS V14.01,2013-04-24 00:59:00,
2013-04-23 21:00:00,62.0,45.7,29.97,ENE,67,0.0,0.0,55,0.00,,---,0.00,0.00,VWS V14.01,2013-04-24 01:00:00,
2013-04-23 21:01:00,62.0,45.7,29.97,ENE,67,0.0,0.0,55,0.00,,---,0.00,0.00,VWS V14.01,2013-04-24 01:01:00,
2013-04-23 21:02:00,62.1,45.8,29.97,ENE,67,0.0,0.0,55,0.00,,---,0.00,0.00,VWS V14.01,2013-04-24 01:02:00,
2013-04-23 21:03:00,62.1,45.8,29.98,ENE,67,0.0,0.0,55,0.00,,---,0.00,0.00,VWS V14.01,2013-04-24 01:03:00,
2013-04-23 21:04:00,61.7,45.4,29.97,ENE,67,0.0,0.0,55,0.00,,---,0.00,0.00,VWS V14.01,2013-04-24 01:04:00,
2013-04-23 21:05:00,62.2,45.4,29.98,ENE,67,0.0,0.0,54,0.00,,---,0.00,0.00,VWS V14.01,2013-04-24 01:05:00,
2013-04-23 21:10:00,62.0,45.7,29.97,ENE,67,0.0,0.0,55,0.00,,---,0.00,0.00,VWS V14.01,2013-04-24 01:10:00,
2013-04-23 21:12:00,62.5,45.7,29.97,ENE,67,0.0,0.0,54,0.00,,---,0.00,0.00,VWS V14.01,2013-04-24 01:12:00,
2013-04-23 21:13:00,62.5,45.7,29.97,ENE,67,0.0,1.0,54,0.00,,---,0.00,0.00,VWS V14.01,2013-04-24 01:13:00,
2013-04-23 21:14:00,62.5,45.7,29.97,ENE,67,0.0,1.0,54,0.00,,---,0.00,0.00,VWS V14.01,2013-04-24 01:14:00,
2013-04-23 21:15:00,62.2,45.4,29.97,ENE,67,0.0,0.0,54,0.00,,---,0.00,0.00,VWS V14.01,2013-04-24 01:15:00,
2013-04-23 21:16:00,62.5,45.7,29.97,ENE,67,0.0,1.0,54,0.00,,---,0.00,0.00,VWS V14.01,2013-04-24 01:16:00,
2013-04-23 21:17:00,62.5,45.7,29.98,ENE,67,0.0,1.0,54,0.00,,---,0.00,0.00,VWS V14.01,2013-04-24 01:17:00,
2013-04-23 21:18:00,62.5,45.7,29.98,ENE,67,0.0,1.0,54,0.00,,---,0.00,0.00,VWS V14.01,2013-04-24 01:18:00,
2013-04-23 21:19:00,62.5,45.7,29.98,ENE,67,0.0,1.0,54,0.00,,---,0.00,0.00,VWS V14.01,2013-04-24 01:19:00,
2013-04-23 21:20:00,62.4,45.5,29.97,ENE,67,0.0,0.0,54,0.00,,---,0.00,0.00,VWS V14.01,2013-04-24 01:20:00,
2013-04-23 21:25:00,62.5,45.7,29.97,ENE,67,0.0,1.0,54,0.00,,---,0.00,0.00,VWS V14.01,2013-04-24 01:25:00,
2013-04-23 21:26:00,62.3,45.5,29.97,ENE,67,0.0,1.0,54,0.00,,---,0.00,0.00,VWS V14.01,2013-04-24 01:26:00,
2013-04-23 21:27:00,62.3,45.5,29.97,ENE,67,0.0,1.0,54,0.00,,---,0.00,0.00,VWS V14.01,2013-04-24 01:27:00,
2013-04-23 21:28:00,62.2,46.3,29.98,ENE,67,1.0,1.0,56,0.00,,---,0.00,0.00,VWS V14.01,2013-04-24 01:28:00,
2013-04-23 21:29:00,62.2,47.7,29.98,ENE,67,0.0,1.0,59,0.00,,---,0.00,0.00,VWS V14.01,2013-04-24 01:29:00,
2013-04-23 21:30:00,62.5,45.7,29.98,ENE,67,0.0,1.0,54,0.00,,---,0.00,0.00,VWS V14.01,2013-04-24 01:30:00,
2013-04-23 21:31:00,62.0,47.1,29.98,ENE,67,0.0,0.0,58,0.00,,---,0.00,0.00,VWS V14.01,2013-04-24 01:31:00,
2013-04-23 21:32:00,61.8,47.3,29.98,ENE,67,0.0,1.0,59,0.00,,---,0.00,0.00,VWS V14.01,2013-04-24 01:32:00,
2013-04-23 21:33:00,61.7,47.7,29.98,ENE,67,0.0,1.0,60,0.00,,---,0.00,0.00,VWS V14.01,2013-04-24 01:33:00,
2013-04-23 21:35:00,62.3,45.5,29.97,ENE,67,0.0,1.0,54,0.00,,---,0.00,0.00,VWS V14.01,2013-04-24 01:35:00,
2013-04-23 21:38:00,61.1,47.1,29.98,ENE,67,0.0,1.0,60,0.00,,---,0.00,0.00,VWS V14.01,2013-04-24 01:38:00,
2013-04-23 21:39:00,60.9,46.9,29.98,ENE,67,0.0,1.0,60,0.00,,---,0.00,0.00,VWS V14.01,2013-04-24 01:39:00,
2013-04-23 21:40:00,62.0,47.1,29.98,ENE,67,0.0,0.0,58,0.00,,---,0.00,0.00,VWS V14.01,2013-04-24 01:40:00,
2013-04-23 21:41:00,60.7,47.2,29.98,ENE,67,0.0,0.0,61,0.00,,---,0.00,0.00,VWS V14.01,2013-04-24 01:41:00,
2013-04-23 21:42:00,60.6,47.1,29.98,ENE,67,0.0,0.0,61,0.00,,---,0.00,0.00,VWS V14.01,2013-04-24 01:42:00,
2013-04-23 21:43:00,60.5,46.1,29.98,ENE,67,0.0,1.0,59,0.00,,---,0.00,0.00,VWS V14.01,2013-04-24 01:43:00,
2013-04-23 21:44:00,60.4,46.0,29.98,ENE,67,0.0,1.0,59,0.00,,---,0.00,0.00,VWS V14.01,2013-04-24 01:44:00,
2013-04-23 21:45:00,61.3,47.3,29.98,ENE,67,0.0,1.0,60,0.00,,---,0.00,0.00,VWS V14.01,2013-04-24 01:45:00,
2013-04-23 21:50:00,60.5,47.4,29.98,ENE,67,0.0,0.0,62,0.00,,---,0.00,0.00,VWS V14.01,2013-04-24 01:50:00,
2013-04-23 21:51:00,60.7,47.2,29.98,ENE,67,0.0,0.0,61,0.00,,---,0.00,0.00,VWS V14.01,2013-04-24 01:51:00,
2013-04-23 21:52:00,60.5,47.4,29.98,ENE,67,0.0,1.0,62,0.00,,---,0.00,0.00,VWS V14.01,2013-04-24 01:52:00,
2013-04-23 21:53:00,60.4,46.5,29.98,ENE,67,0.0,1.0,60,0.00,,---,0.00,0.00,VWS V14.01,2013-04-24 01:53:00,
2013-04-23 21:54:00,60.4,47.8,29.98,ENE,67,0.0,1.0,63,0.00,,---,0.00,0.00,VWS V14.01,2013-04-24 01:54:00,
2013-04-23 21:55:00,60.3,47.7,29.98,ENE,67,0.0,1.0,63,0.00,,---,0.00,0.00,VWS V14.01,2013-04-24 01:55:00,
2013-04-23 21:56:00,60.4,46.0,29.98,ENE,67,0.0,1.0,59,0.00,,---,0.00,0.00,VWS V14.01,2013-04-24 01:56:00,
2013-04-23 21:58:00,60.0,47.0,29.98,ENE,67,0.0,1.0,62,0.00,,---,0.00,0.00,VWS V14.01,2013-04-24 01:58:00,
2013-04-23 22:01:00,60.5,47.4,29.98,ENE,67,0.0,0.0,62,0.00,,---,0.00,0.00,VWS V14.01,2013-04-24 02:01:00,
2013-04-23 22:03:00,59.8,46.3,29.98,ENE,67,0.0,0.0,61,0.00,,---,0.00,0.00,VWS V14.01,2013-04-24 02:03:00,
2013-04-23 22:04:00,59.7,46.7,29.98,ENE,67,0.0,0.0,62,0.00,,---,0.00,0.00,VWS V14.01,2013-04-24 02:04:00,
2013-04-23 22:06:00,60.2,47.2,29.98,ENE,67,0.0,1.0,62,0.00,,---,0.00,0.00,VWS V14.01,2013-04-24 02:06:00,
2013-04-23 22:07:00,59.7,47.1,29.99,ENE,67,0.0,0.0,63,0.00,,---,0.00,0.00,VWS V14.01,2013-04-24 02:07:00,
2013-04-23 22:08:00,59.6,47.0,29.98,ENE,67,0.0,0.0,63,0.00,,---,0.00,0.00,VWS V14.01,2013-04-24 02:08:00,
2013-04-23 22:10:00,59.5,47.7,29.99,ENE,67,0.0,0.0,65,0.00,,---,0.00,0.00,VWS V14.01,2013-04-24 02:10:00,
2013-04-23 22:11:00,59.8,45.9,29.98,ENE,67,0.0,0.0,60,0.00,,---,0.00,0.00,VWS V14.01,2013-04-24 02:11:00,
2013-04-23 22:13:00,59.3,47.1,29.99,ENE,67,0.0,0.0,64,0.00,,---,0.00,0.00,VWS V14.01,2013-04-24 02:13:00,
2013-04-23 22:16:00,59.1,46.1,29.99,ENE,67,0.0,0.0,62,0.00,,---,0.00,0.00,VWS V14.01,2013-04-24 02:16:00,
2013-04-23 22:17:00,59.1,46.5,29.99,ENE,67,0.0,0.0,63,0.00,,---,0.00,0.00,VWS V14.01,2013-04-24 02:17:00,
2013-04-23 22:18:00,59.6,47.0,29.98,ENE,67,0.0,0.0,63,0.00,,---,0.00,0.00,VWS V14.01,2013-04-24 02:18:00,
2013-04-23 22:20:00,59.1,47.0,29.98,ENE,67,0.0,0.0,64,0.00,,---,0.00,0.00,VWS V14.01,2013-04-24 02:20:00,
2013-04-23 22:23:00,59.3,47.1,29.99,ENE,67,0.0,0.0,64,0.00,,---,0.00,0.00,VWS V14.01,2013-04-24 02:23:00,
2013-04-23 22:24:00,58.9,46.8,29.98,ENE,67,0.0,0.0,64,0.00,,---,0.00,0.00,VWS V14.01,2013-04-24 02:24:00,
2013-04-23 22:28:00,59.1,47.0,29.99,ENE,67,0.0,0.0,64,0.00,,---,0.00,0.00,VWS V14.01,2013-04-24 02:28:00,
2013-04-23 22:29:00,58.6,46.9,29.98,ENE,67,0.0,0.0,65,0.00,,---,0.00,0.00,VWS V14.01,2013-04-24 02:29:00,
2013-04-23 22:33:00,58.9,46.8,29.98,ENE,67,0.0,0.0,64,0.00,,---,0.00,0.00,VWS V14.01,2013-04-24 02:33:00,
2013-04-23 22:34:00,58.4,45.9,29.98,ENE,67,0.0,0.0,63,0.00,,---,0.00,0.00,VWS V14.01,2013-04-24 02:34:00,
2013-04-23 22:36:00,58.4,45.9,29.98,ENE,67,0.0,0.0,63,0.00,,---,0.00,0.00,VWS V14.01,2013-04-24 02:36:00,
2013-04-23 22:38:00,58.6,46.9,29.98,ENE,67,0.0,0.0,65,0.00,,---,0.00,0.00,VWS V14.01,2013-04-24 02:38:00,
2013-04-23 22:42:00,58.4,47.1,29.98,ENE,67,0.0,0.0,66,0.00,,---,0.00,0.00,VWS V14.01,2013-04-24 02:42:00,
2013-04-23 22:43:00,58.4,45.9,29.98,ENE,67,0.0,0.0,63,0.00,,---,0.00,0.00,VWS V14.01,2013-04-24 02:43:00,
2013-04-23 22:45:00,58.2,46.9,29.98,ENE,67,0.0,0.0,66,0.00,,---,0.00,0.00,VWS V14.01,2013-04-24 02:45:00,
2013-04-23 22:48:00,58.4,46.7,29.98,ENE,67,0.0,0.0,65,0.00,,---,0.00,0.00,VWS V14.01,2013-04-24 02:48:00,
2013-04-23 22:52:00,58.2,45.7,29.99,ENE,67,0.0,0.0,63,0.00,,---,0.00,0.00,VWS V14.01,2013-04-24 02:52:00,
2013-04-23 22:53:00,58.2,45.7,29.98,ENE,67,0.0,0.0,63,0.00,,---,0.00,0.00,VWS V14.01,2013-04-24 02:53:00,
2013-04-23 22:54:00,58.3,47.0,29.98,ENE,67,0.0,0.0,66,0.00,,---,0.00,0.00,VWS V14.01,2013-04-24 02:54:00,
2013-04-23 22:56:00,58.4,45.9,29.98,ENE,67,0.0,0.0,63,0.00,,---,0.00,0.00,VWS V14.01,2013-04-24 02:56:00,
2013-04-23 22:57:00,58.4,46.3,29.98,ENE,67,0.0,0.0,64,0.00,,---,0.00,0.00,VWS V14.01,2013-04-24 02:57:00,
2013-04-23 22:59:00,58.1,46.0,29.98,ENE,67,0.0,1.0,64,0.00,,---,0.00,0.00,VWS V14.01,2013-04-24 02:59:00,
2013-04-23 23:01:00,58.5,46.0,29.99,ENE,67,0.0,0.0,63,0.00,,---,0.00,0.00,VWS V14.01,2013-04-24 03:01:00,
2013-04-23 23:02:00,58.5,46.0,29.98,ENE,67,0.0,0.0,63,0.00,,---,0.00,0.00,VWS V14.01,2013-04-24 03:02:00,
2013-04-23 23:04:00,58.3,45.8,29.98,ENE,67,0.0,0.0,63,0.00,,---,0.00,0.00,VWS V14.01,2013-04-24 03:04:00,
2013-04-23 23:05:00,58.6,46.1,29.98,ENE,67,0.0,0.0,63,0.00,,---,0.00,0.00,VWS V14.01,2013-04-24 03:05:00,
2013-04-23 23:07:00,58.6,46.5,29.98,ENE,67,0.0,0.0,64,0.00,,---,0.00,0.00,VWS V14.01,2013-04-24 03:07:00,
2013-04-23 23:09:00,58.4,45.9,29.99,ENE,67,0.0,0.0,63,0.00,,---,0.00,0.00,VWS V14.01,2013-04-24 03:09:00,
2013-04-23 23:11:00,58.5,46.0,29.98,ENE,67,0.0,0.0,63,0.00,,---,0.00,0.00,VWS V14.01,2013-04-24 03:11:00,
2013-04-23 23:13:00,58.5,46.8,29.99,ENE,67,0.0,0.0,65,0.00,,---,0.00,0.00,VWS V14.01,2013-04-24 03:13:00,
2013-04-23 23:15:00,58.6,46.1,29.99,ENE,67,0.0,0.0,63,0.00,,---,0.00,0.00,VWS V14.01,2013-04-24 03:15:00,
2013-04-23 23:19:00,58.3,46.2,29.98,ENE,67,0.0,0.0,64,0.00,,---,0.00,0.00,VWS V14.01,2013-04-24 03:19:00,
2013-04-23 23:20:00,58.5,46.0,29.98,ENE,67,0.0,0.0,63,0.00,,---,0.00,0.00,VWS V14.01,2013-04-24 03:20:00,
2013-04-23 23:21:00,58.3,46.2,29.98,ENE,67,0.0,0.0,64,0.00,,---,0.00,0.00,VWS V14.01,2013-04-24 03:21:00,
2013-04-23 23:25:00,58.2,46.5,29.98,ENE,67,0.0,0.0,65,0.00,,---,0.00,0.00,VWS V14.01,2013-04-24 03:25:00,
2013-04-23 23:26:00,58.4,45.9,29.98,ENE,67,0.0,0.0,63,0.00,,---,0.00,0.00,VWS V14.01,2013-04-24 03:26:00,
2013-04-23 23:28:00,58.1,46.0,29.98,ENE,67,0.0,1.0,64,0.00,,---,0.00,0.00,VWS V14.01,2013-04-24 03:28:00,
2013-04-23 23:29:00,58.1,46.4,29.98,ENE,67,0.0,1.0,65,0.00,,---,0.00,0.00,VWS V14.01,2013-04-24 03:29:00,
2013-04-23 23:30:00,58.1,46.8,29.98,ENE,67,0.0,0.0,66,0.00,,---,0.00,0.00,VWS V14.01,2013-04-24 03:30:00,
2013-04-23 23:31:00,58.3,46.2,29.98,ENE,67,0.0,0.0,64,0.00,,---,0.00,0.00,VWS V14.01,2013-04-24 03:31:00,
2013-04-23 23:32:00,58.0,46.7,29.98,ENE,67,0.0,0.0,66,0.00,,---,0.00,0.00,VWS V14.01,2013-04-24 03:32:00,
2013-04-23 23:36:00,58.1,46.0,29.98,ENE,67,0.0,0.0,64,0.00,,---,0.00,0.00,VWS V14.01,2013-04-24 03:36:00,
2013-04-23 23:37:00,57.7,46.0,29.98,ENE,67,0.0,0.0,65,0.00,,---,0.00,0.00,VWS V14.01,2013-04-24 03:37:00,
2013-04-23 23:39:00,57.7,46.0,29.98,ENE,67,0.0,0.0,65,0.00,,---,0.00,0.00,VWS V14.01,2013-04-24 03:39:00,
2013-04-23 23:40:00,57.7,46.4,29.98,ENE,67,0.0,0.0,66,0.00,,---,0.00,0.00,VWS V14.01,2013-04-24 03:40:00,
2013-04-23 23:41:00,58.1,47.2,29.98,ENE,67,0.0,0.0,67,0.00,,---,0.00,0.00,VWS V14.01,2013-04-24 03:41:00,
2013-04-23 23:44:00,57.8,46.1,29.98,ENE,67,0.0,0.0,65,0.00,,---,0.00,0.00,VWS V14.01,2013-04-24 03:44:00,
2013-04-23 23:46:00,57.7,46.0,29.98,ENE,67,0.0,0.0,65,0.00,,---,0.00,0.00,VWS V14.01,2013-04-24 03:46:00,
2013-04-23 23:47:00,57.9,46.6,29.98,ENE,67,0.0,0.0,66,0.00,,---,0.00,0.00,VWS V14.01,2013-04-24 03:47:00,
2013-04-23 23:48:00,57.9,46.6,29.98,ENE,67,0.0,2.0,66,0.00,,---,0.00,0.00,VWS V14.01,2013-04-24 03:48:00,
2013-04-23 23:49:00,57.8,46.1,29.98,ENE,67,0.0,2.0,65,0.00,,---,0.00,0.00,VWS V14.01,2013-04-24 03:49:00,
2013-04-23 23:50:00,57.8,46.1,29.98,ENE,67,0.0,0.0,65,0.00,,---,0.00,0.00,VWS V14.01,2013-04-24 03:50:00,
2013-04-23 23:51:00,57.9,46.2,29.99,ENE,67,0.0,0.0,65,0.00,,---,0.00,0.00,VWS V14.01,2013-04-24 03:51:00,
2013-04-23 23:52:00,57.7,46.0,29.98,ENE,67,0.0,0.0,65,0.00,,---,0.00,0.00,VWS V14.01,2013-04-24 03:52:00,
2013-04-23 23:53:00,57.9,47.0,29.99,ENE,67,0.0,0.0,67,0.00,,---,0.00,0.00,VWS V14.01,2013-04-24 03:53:00,
2013-04-23 23:54:00,57.8,46.5,29.98,ENE,67,0.0,0.0,66,0.00,,---,0.00,0.00,VWS V14.01,2013-04-24 03:54:00,
2013-04-23 23:55:00,57.8,46.5,29.99,ENE,67,0.0,0.0,66,0.00,,---,0.00,0.00,VWS V14.01,2013-04-24 03:55:00,
2013-04-23 23:57:00,57.9,46.6,29.98,ENE,67,0.0,1.0,66,0.00,,---,0.00,0.00,VWS V14.01,2013-04-24 03:57:00,